| time (UTC) | temp F | wind direction | speed knots | gust knots | rain 1hr in | rain 24hr in | rain mn in | humidity % | barometer mb |
| 20260505230903 | 72 | 100 | 5.2 | 12.2 | 0.00 | 0.00 | 0.00 | 62 | 1016.0 |
| 20260505230803 | 72 | 130 | 4.3 | 12.2 | 0.00 | 0.00 | 0.00 | 63 | 1016.0 |
| 20260505230703 | 72 | 173 | 4.3 | 12.2 | 0.00 | 0.00 | 0.00 | 63 | 1016.0 |
| 20260505230604 | 72 | 162 | 4.3 | 12.2 | 0.00 | 0.00 | 0.00 | 63 | 1016.0 |
| 20260505230506 | 72 | 120 | 3.5 | 13.0 | 0.00 | 0.00 | 0.00 | 63 | 1016.1 |
| 20260505230203 | 72 | 157 | 5.2 | 13.0 | 0.00 | 0.00 | 0.00 | 63 | 1016.0 |
| 20260505230009 | 72 | 190 | 5.2 | 13.0 | 0.00 | 0.00 | 0.00 | 63 | 1016.0 |
| 20260505225905 | 72 | 169 | 5.2 | 13.0 | 0.00 | 0.00 | 0.00 | 62 | 1016.1 |
| 20260505225804 | 72 | 142 | 6.1 | 13.0 | 0.00 | 0.00 | 0.00 | 62 | 1016.1 |
| 20260505225705 | 72 | 154 | 5.2 | 13.0 | 0.00 | 0.00 | 0.00 | 62 | 1016.1 |
| 20260505225603 | 72 | 192 | 4.3 | 10.4 | 0.00 | 0.00 | 0.00 | 63 | 1016.1 |
| 20260505225506 | 72 | 109 | 4.3 | 10.4 | 0.00 | 0.00 | 0.00 | 63 | 1016.1 |
| 20260505225404 | 72 | 192 | 4.3 | 13.9 | 0.00 | 0.00 | 0.00 | 62 | 1016.1 |
| 20260505224904 | 72 | 193 | 4.3 | 13.9 | 0.00 | 0.00 | 0.00 | 62 | 1016.2 |
| 20260505224804 | 72 | 111 | 4.3 | 13.9 | 0.00 | 0.00 | 0.00 | 62 | 1016.1 |
| 20260505224704 | 72 | 101 | 6.1 | 13.9 | 0.00 | 0.00 | 0.00 | 62 | 1016.1 |
| 20260505224604 | 72 | 142 | 6.1 | 13.9 | 0.00 | 0.00 | 0.00 | 62 | 1016.2 |
| 20260505224505 | 72 | 115 | 5.2 | 8.7 | 0.00 | 0.00 | 0.00 | 62 | 1016.2 |
| 20260505224405 | 73 | 165 | 4.3 | 8.7 | 0.00 | 0.00 | 0.00 | 62 | 1016.2 |
| 20260505224306 | 73 | 150 | 4.3 | 12.2 | 0.00 | 0.00 | 0.00 | 62 | 1016.2 |
| 20260505224204 | 73 | 170 | 4.3 | 12.2 | 0.00 | 0.00 | 0.00 | 62 | 1016.0 |
| 20260505224105 | 73 | 135 | 4.3 | 12.2 | 0.00 | 0.00 | 0.00 | 62 | 1016.1 |
| 20260505223905 | 73 | 191 | 3.5 | 12.2 | 0.00 | 0.00 | 0.00 | 61 | 1016.0 |
| 20260505223804 | 73 | 89 | 3.5 | 15.6 | 0.00 | 0.00 | 0.00 | 62 | 1016.1 |
| 20260505223604 | 73 | 157 | 3.5 | 15.6 | 0.00 | 0.00 | 0.00 | 62 | 1016.1 |
| 20260505223506 | 73 | 173 | 4.3 | 15.6 | 0.00 | 0.00 | 0.00 | 61 | 1016.1 |
| 20260505223406 | 73 | 172 | 5.2 | 15.6 | 0.00 | 0.00 | 0.00 | 61 | 1016.1 |
| 20260505223305 | 73 | 47 | 5.2 | 15.6 | 0.00 | 0.00 | 0.00 | 61 | 1016.1 |
| 20260505223104 | 73 | 152 | 7.0 | 15.6 | 0.00 | 0.00 | 0.00 | 61 | 1016.1 |
| 20260505223006 | 73 | 136 | 5.2 | 15.6 | 0.00 | 0.00 | 0.00 | 61 | 1016.0 |
| 20260505222904 | 73 | 113 | 4.3 | 12.2 | 0.00 | 0.00 | 0.00 | 61 | 1016.0 |
| 20260505222806 | 73 | 173 | 6.1 | 12.2 | 0.00 | 0.00 | 0.00 | 61 | 1016.0 |
| 20260505222704 | 73 | 236 | 6.1 | 12.2 | 0.00 | 0.00 | 0.00 | 60 | 1016.0 |
| 20260505222404 | 73 | 83 | 2.6 | 12.2 | 0.00 | 0.00 | 0.00 | 61 | 1016.1 |
| 20260505222306 | 73 | 146 | 3.5 | 12.2 | 0.00 | 0.00 | 0.00 | 61 | 1016.1 |
| 20260505222103 | 73 | 168 | 4.3 | 11.3 | 0.00 | 0.00 | 0.00 | 60 | 1016.1 |
| 20260505222006 | 73 | 167 | 5.2 | 11.3 | 0.00 | 0.00 | 0.00 | 60 | 1016.1 |
| 20260505221905 | 73 | 202 | 6.1 | 11.3 | 0.00 | 0.00 | 0.00 | 60 | 1016.1 |
| 20260505221804 | 73 | 162 | 6.1 | 11.3 | 0.00 | 0.00 | 0.00 | 60 | 1016.1 |
| 20260505221705 | 73 | 110 | 6.1 | 11.3 | 0.00 | 0.00 | 0.00 | 60 | 1016.1 |
| 20260505221604 | 73 | 170 | 6.1 | 11.3 | 0.00 | 0.00 | 0.00 | 60 | 1016.0 |
| 20260505221507 | 73 | 154 | 5.2 | 11.3 | 0.00 | 0.00 | 0.00 | 60 | 1016.1 |
| 20260505221405 | 73 | 89 | 5.2 | 11.3 | 0.00 | 0.00 | 0.00 | 59 | 1016.1 |
| 20260505221304 | 73 | 179 | 5.2 | 11.3 | 0.00 | 0.00 | 0.00 | 60 | 1016.2 |
| 20260505221204 | 73 | 163 | 4.3 | 10.4 | 0.00 | 0.00 | 0.00 | 60 | 1016.0 |
| 20260505221104 | 73 | 171 | 4.3 | 10.4 | 0.00 | 0.00 | 0.00 | 59 | 1016.0 |
| 20260505221005 | 73 | 138 | 4.3 | 12.2 | 0.00 | 0.00 | 0.00 | 59 | 1016.0 |
| 20260505220904 | 73 | 175 | 5.2 | 12.2 | 0.00 | 0.00 | 0.00 | 59 | 1016.0 |
| 20260505220803 | 74 | 141 | 5.2 | 12.2 | 0.00 | 0.00 | 0.00 | 59 | 1016.0 |
| 20260505220705 | 74 | 74 | 4.3 | 12.2 | 0.00 | 0.00 | 0.00 | 59 | 1016.0 |
| 20260505220605 | 74 | 127 | 4.3 | 12.2 | 0.00 | 0.00 | 0.00 | 59 | 1016.0 |
| 20260505220506 | 74 | 171 | 3.5 | 12.2 | 0.00 | 0.00 | 0.00 | 59 | 1016.0 |
| 20260505220404 | 74 | 107 | 4.3 | 12.2 | 0.00 | 0.00 | 0.00 | 59 | 1016.0 |
| 20260505220304 | 74 | 92 | 5.2 | 12.2 | 0.00 | 0.00 | 0.00 | 58 | 1016.1 |
| 20260505220204 | 74 | 128 | 6.1 | 12.2 | 0.00 | 0.00 | 0.00 | 59 | 1016.1 |
| 20260505220104 | 74 | 94 | 5.2 | 12.2 | 0.00 | 0.00 | 0.00 | 58 | 1016.1 |
| 20260505220006 | 74 | 139 | 5.2 | 12.2 | 0.00 | 0.00 | 0.00 | 59 | 1016.1 |
| 20260505215904 | 74 | 35 | 3.5 | 12.2 | 0.00 | 0.00 | 0.00 | 59 | 1016.2 |
| 20260505215805 | 74 | 132 | 5.2 | 12.2 | 0.00 | 0.00 | 0.00 | 58 | 1016.2 |
| 20260505215605 | 74 | 190 | 5.2 | 13.0 | 0.00 | 0.00 | 0.00 | 58 | 1016.2 |
| 20260505215506 | 74 | 107 | 4.3 | 12.2 | 0.00 | 0.00 | 0.00 | 58 | 1016.2 |
| 20260505215405 | 74 | 122 | 4.3 | 12.2 | 0.00 | 0.00 | 0.00 | 58 | 1016.2 |
| 20260505215305 | 74 | 179 | 5.2 | 12.2 | 0.00 | 0.00 | 0.00 | 58 | 1016.1 |
| 20260505215204 | 74 | 194 | 5.2 | 13.9 | 0.00 | 0.00 | 0.00 | 58 | 1016.2 |
| 20260505215104 | 74 | 191 | 6.1 | 13.9 | 0.00 | 0.00 | 0.00 | 58 | 1016.2 |
| 20260505215005 | 74 | 161 | 6.1 | 13.9 | 0.00 | 0.00 | 0.00 | 58 | 1016.2 |
| 20260505214903 | 74 | 101 | 7.0 | 13.9 | 0.00 | 0.00 | 0.00 | 58 | 1016.3 |
| 20260505214805 | 74 | 148 | 6.1 | 13.9 | 0.00 | 0.00 | 0.00 | 58 | 1016.3 |
| 20260505214704 | 74 | 142 | 4.3 | 13.9 | 0.00 | 0.00 | 0.00 | 58 | 1016.2 |
| 20260505214605 | 74 | 144 | 4.3 | 13.9 | 0.00 | 0.00 | 0.00 | 58 | 1016.2 |
| 20260505214507 | 74 | 94 | 6.1 | 13.9 | 0.00 | 0.00 | 0.00 | 58 | 1016.2 |
| 20260505214404 | 74 | 95 | 6.1 | 13.9 | 0.00 | 0.00 | 0.00 | 57 | 1016.1 |
| 20260505214304 | 74 | 183 | 6.1 | 11.3 | 0.00 | 0.00 | 0.00 | 57 | 1016.2 |
| 20260505214204 | 74 | 92 | 6.1 | 9.6 | 0.00 | 0.00 | 0.00 | 57 | 1016.2 |
| 20260505214104 | 74 | 122 | 6.1 | 9.6 | 0.00 | 0.00 | 0.00 | 57 | 1016.1 |
| 20260505214006 | 75 | 93 | 7.0 | 9.6 | 0.00 | 0.00 | 0.00 | 57 | 1016.1 |
| 20260505213906 | 75 | 94 | 6.1 | 11.3 | 0.00 | 0.00 | 0.00 | 57 | 1016.1 |
| 20260505213804 | 75 | 171 | 5.2 | 9.6 | 0.00 | 0.00 | 0.00 | 57 | 1016.2 |
| 20260505213705 | 75 | 182 | 6.1 | 9.6 | 0.00 | 0.00 | 0.00 | 57 | 1016.2 |
| 20260505213604 | 75 | 165 | 6.1 | 10.4 | 0.00 | 0.00 | 0.00 | 57 | 1016.2 |
| 20260505213506 | 75 | 153 | 6.1 | 10.4 | 0.00 | 0.00 | 0.00 | 57 | 1016.2 |
| 20260505213304 | 75 | 153 | 5.2 | 10.4 | 0.00 | 0.00 | 0.00 | 57 | 1016.2 |
| 20260505213205 | 75 | 86 | 5.2 | 9.6 | 0.00 | 0.00 | 0.00 | 57 | 1016.2 |
| 20260505213105 | 75 | 152 | 4.3 | 9.6 | 0.00 | 0.00 | 0.00 | 57 | 1016.3 |
| 20260505213007 | 75 | 95 | 5.2 | 9.6 | 0.00 | 0.00 | 0.00 | 57 | 1016.2 |
| 20260505212803 | 75 | 169 | 3.5 | 9.6 | 0.00 | 0.00 | 0.00 | 57 | 1016.3 |
| 20260505212704 | 75 | 157 | 3.5 | 9.6 | 0.00 | 0.00 | 0.00 | 57 | 1016.2 |
| 20260505212404 | 75 | 158 | 5.2 | 11.3 | 0.00 | 0.00 | 0.00 | 56 | 1016.2 |
| 20260505212306 | 75 | 81 | 5.2 | 11.3 | 0.00 | 0.00 | 0.00 | 56 | 1016.2 |
| 20260505212204 | 75 | 144 | 5.2 | 12.2 | 0.00 | 0.00 | 0.00 | 56 | 1016.2 |
| 20260505212105 | 75 | 121 | 5.2 | 12.2 | 0.00 | 0.00 | 0.00 | 56 | 1016.2 |
| 20260505212005 | 75 | 150 | 6.1 | 12.2 | 0.00 | 0.00 | 0.00 | 56 | 1016.3 |
| 20260505211905 | 75 | 103 | 7.0 | 12.2 | 0.00 | 0.00 | 0.00 | 56 | 1016.3 |
| 20260505211806 | 75 | 128 | 6.1 | 12.2 | 0.00 | 0.00 | 0.00 | 56 | 1016.3 |
| 20260505211704 | 75 | 160 | 5.2 | 12.2 | 0.00 | 0.00 | 0.00 | 56 | 1016.4 |
| 20260505211604 | 75 | 175 | 5.2 | 12.2 | 0.00 | 0.00 | 0.00 | 56 | 1016.2 |
| 20260505211506 | 75 | 121 | 7.0 | 12.2 | 0.00 | 0.00 | 0.00 | 55 | 1016.2 |
| 20260505211403 | 75 | 163 | 6.1 | 12.2 | 0.00 | 0.00 | 0.00 | 56 | 1016.3 |
| 20260505211305 | 75 | 169 | 5.2 | 13.0 | 0.00 | 0.00 | 0.00 | 56 | 1016.3 |
| 20260505211204 | 75 | 111 | 5.2 | 13.0 | 0.00 | 0.00 | 0.00 | 56 | 1016.2 |
| 20260505211104 | 75 | 74 | 4.3 | 13.0 | 0.00 | 0.00 | 0.00 | 55 | 1016.2 |
| 20260505211008 | 75 | 167 | 4.3 | 13.0 | 0.00 | 0.00 | 0.00 | 56 | 1016.3 |
| 20260505210904 | 75 | 150 | 4.3 | 13.0 | 0.00 | 0.00 | 0.00 | 56 | 1016.2 |
| 20260505210804 | 75 | 156 | 4.3 | 13.0 | 0.00 | 0.00 | 0.00 | 55 | 1016.2 |
| 20260505210405 | 75 | 173 | 5.2 | 13.0 | 0.00 | 0.00 | 0.00 | 55 | 1016.3 |
| 20260505210305 | 75 | 64 | 5.2 | 13.0 | 0.00 | 0.00 | 0.00 | 55 | 1016.3 |
| 20260505210205 | 75 | 128 | 7.0 | 13.0 | 0.00 | 0.00 | 0.00 | 56 | 1016.3 |
| 20260505210104 | 75 | 209 | 7.8 | 13.0 | 0.00 | 0.00 | 0.00 | 55 | 1016.2 |
| 20260505210008 | 76 | 153 | 7.0 | 13.0 | 0.00 | 0.00 | 0.00 | 55 | 1016.2 |
| 20260505205905 | 76 | 129 | 7.8 | 13.0 | 0.00 | 0.00 | 0.00 | 55 | 1016.2 |
| 20260505205805 | 76 | 194 | 6.1 | 10.4 | 0.00 | 0.00 | 0.00 | 56 | 1016.3 |
| 20260505205705 | 76 | 107 | 3.5 | 10.4 | 0.00 | 0.00 | 0.00 | 56 | 1016.2 |
| 20260505205403 | 76 | 232 | 4.3 | 10.4 | 0.00 | 0.00 | 0.00 | 55 | 1016.2 |
| 20260505205305 | 76 | 227 | 6.1 | 10.4 | 0.00 | 0.00 | 0.00 | 56 | 1016.2 |
| 20260505205204 | 76 | 119 | 6.1 | 10.4 | 0.00 | 0.00 | 0.00 | 56 | 1016.1 |
| 20260505205105 | 76 | 192 | 5.2 | 10.4 | 0.00 | 0.00 | 0.00 | 56 | 1016.2 |
| 20260505205006 | 76 | 139 | 4.3 | 10.4 | 0.00 | 0.00 | 0.00 | 56 | 1016.1 |
| 20260505204906 | 76 | 90 | 3.5 | 10.4 | 0.00 | 0.00 | 0.00 | 56 | 1016.1 |
| 20260505204804 | 76 | 55 | 4.3 | 10.4 | 0.00 | 0.00 | 0.00 | 55 | 1016.1 |
| 20260505204704 | 76 | 128 | 4.3 | 10.4 | 0.00 | 0.00 | 0.00 | 55 | 1016.1 |
| 20260505204404 | 76 | 177 | 5.2 | 10.4 | 0.00 | 0.00 | 0.00 | 54 | 1016.1 |
| 20260505204104 | 76 | 165 | 5.2 | 13.9 | 0.00 | 0.00 | 0.00 | 55 | 1016.2 |
| 20260505204006 | 77 | 86 | 5.2 | 13.9 | 0.00 | 0.00 | 0.00 | 55 | 1016.1 |
| 20260505203904 | 77 | 312 | 6.1 | 13.9 | 0.00 | 0.00 | 0.00 | 54 | 1016.2 |
| 20260505203805 | 77 | 178 | 6.1 | 13.9 | 0.00 | 0.00 | 0.00 | 54 | 1016.2 |
| 20260505203704 | 77 | 156 | 5.2 | 13.9 | 0.00 | 0.00 | 0.00 | 54 | 1016.1 |
| 20260505203603 | 77 | 143 | 6.1 | 13.9 | 0.00 | 0.00 | 0.00 | 53 | 1016.2 |
| 20260505203506 | 77 | 194 | 6.1 | 13.9 | 0.00 | 0.00 | 0.00 | 53 | 1016.2 |
| 20260505203404 | 77 | 173 | 5.2 | 13.9 | 0.00 | 0.00 | 0.00 | 53 | 1016.1 |
| 20260505203204 | 77 | 265 | 4.3 | 9.6 | 0.00 | 0.00 | 0.00 | 54 | 1016.0 |
| 20260505203105 | 77 | 164 | 4.3 | 9.6 | 0.00 | 0.00 | 0.00 | 54 | 1016.1 |
| 20260505203007 | 77 | 66 | 3.5 | 9.6 | 0.00 | 0.00 | 0.00 | 54 | 1016.1 |
| 20260505202905 | 77 | 200 | 3.5 | 9.6 | 0.00 | 0.00 | 0.00 | 54 | 1016.0 |
| 20260505202804 | 77 | 55 | 4.3 | 9.6 | 0.00 | 0.00 | 0.00 | 54 | 1016.1 |
| 20260505202705 | 77 | 170 | 4.3 | 9.6 | 0.00 | 0.00 | 0.00 | 53 | 1016.1 |
| 20260505202605 | 77 | 173 | 4.3 | 9.6 | 0.00 | 0.00 | 0.00 | 53 | 1016.1 |
| 20260505202507 | 77 | 217 | 4.3 | 13.9 | 0.00 | 0.00 | 0.00 | 53 | 1016.1 |
| 20260505202404 | 77 | 225 | 3.5 | 13.9 | 0.00 | 0.00 | 0.00 | 53 | 1016.1 |
| 20260505202306 | 77 | 202 | 4.3 | 13.9 | 0.00 | 0.00 | 0.00 | 53 | 1016.1 |
| 20260505202204 | 77 | 67 | 5.2 | 13.9 | 0.00 | 0.00 | 0.00 | 53 | 1016.1 |
| 20260505202104 | 77 | 139 | 4.3 | 13.9 | 0.00 | 0.00 | 0.00 | 54 | 1016.1 |
| 20260505202005 | 77 | 100 | 4.3 | 13.9 | 0.00 | 0.00 | 0.00 | 52 | 1016.0 |
| 20260505201804 | 77 | 138 | 7.0 | 13.9 | 0.00 | 0.00 | 0.00 | 52 | 1016.1 |
| 20260505201704 | 77 | 150 | 5.2 | 14.8 | 0.00 | 0.00 | 0.00 | 53 | 1016.2 |
| 20260505201604 | 77 | 58 | 3.5 | 10.4 | 0.00 | 0.00 | 0.00 | 53 | 1016.1 |
| 20260505201507 | 77 | 223 | 4.3 | 12.2 | 0.00 | 0.00 | 0.00 | 52 | 1016.1 |
| 20260505201404 | 77 | 192 | 5.2 | 12.2 | 0.00 | 0.00 | 0.00 | 52 | 1016.1 |
| 20260505201305 | 78 | 153 | 5.2 | 11.3 | 0.00 | 0.00 | 0.00 | 52 | 1016.2 |
| 20260505201205 | 78 | 199 | 6.1 | 11.3 | 0.00 | 0.00 | 0.00 | 51 | 1016.2 |
| 20260505201103 | 78 | 167 | 5.2 | 11.3 | 0.00 | 0.00 | 0.00 | 53 | 1016.3 |
| 20260505201006 | 78 | 161 | 4.3 | 11.3 | 0.00 | 0.00 | 0.00 | 53 | 1016.3 |
| 20260505200804 | 78 | 140 | 5.2 | 11.3 | 0.00 | 0.00 | 0.00 | 53 | 1016.3 |
| 20260505200705 | 78 | 104 | 5.2 | 11.3 | 0.00 | 0.00 | 0.00 | 52 | 1016.3 |
| 20260505200604 | 78 | 127 | 6.1 | 12.2 | 0.00 | 0.00 | 0.00 | 51 | 1016.3 |
| 20260505200506 | 78 | 83 | 6.1 | 11.3 | 0.00 | 0.00 | 0.00 | 51 | 1016.4 |
| 20260505200404 | 78 | 200 | 4.3 | 12.2 | 0.00 | 0.00 | 0.00 | 51 | 1016.5 |
| 20260505200304 | 78 | 144 | 4.3 | 12.2 | 0.00 | 0.00 | 0.00 | 51 | 1016.4 |
| 20260505200205 | 78 | 178 | 5.2 | 12.2 | 0.00 | 0.00 | 0.00 | 52 | 1016.4 |
| 20260505200104 | 78 | 173 | 4.3 | 12.2 | 0.00 | 0.00 | 0.00 | 51 | 1016.5 |
| 20260505200007 | 78 | 86 | 5.2 | 12.2 | 0.00 | 0.00 | 0.00 | 52 | 1016.4 |
| 20260505195903 | 78 | 93 | 7.0 | 12.2 | 0.00 | 0.00 | 0.00 | 53 | 1016.5 |
| 20260505195802 | 78 | 130 | 5.2 | 13.9 | 0.00 | 0.00 | 0.00 | 52 | 1016.4 |
| 20260505195703 | 78 | 115 | 5.2 | 13.9 | 0.00 | 0.00 | 0.00 | 53 | 1016.4 |
| 20260505195603 | 78 | 132 | 6.1 | 13.9 | 0.00 | 0.00 | 0.00 | 52 | 1016.5 |
| 20260505195505 | 78 | 166 | 5.2 | 13.9 | 0.00 | 0.00 | 0.00 | 52 | 1016.6 |
| 20260505195404 | 78 | 93 | 5.2 | 13.9 | 0.00 | 0.00 | 0.00 | 52 | 1016.7 |
| 20260505195305 | 78 | 93 | 6.1 | 13.9 | 0.00 | 0.00 | 0.00 | 51 | 1016.7 |
| 20260505195203 | 78 | 157 | 6.1 | 13.9 | 0.00 | 0.00 | 0.00 | 51 | 1016.7 |
| 20260505195104 | 79 | 111 | 7.8 | 13.9 | 0.00 | 0.00 | 0.00 | 50 | 1016.7 |
| 20260505195006 | 79 | 190 | 8.7 | 13.9 | 0.00 | 0.00 | 0.00 | 51 | 1016.7 |
| 20260505194903 | 79 | 167 | 7.0 | 14.8 | 0.00 | 0.00 | 0.00 | 51 | 1016.7 |
| 20260505194803 | 79 | 133 | 6.1 | 11.3 | 0.00 | 0.00 | 0.00 | 51 | 1016.8 |
| 20260505194703 | 79 | 168 | 5.2 | 11.3 | 0.00 | 0.00 | 0.00 | 52 | 1016.8 |
| 20260505194604 | 79 | 143 | 3.5 | 11.3 | 0.00 | 0.00 | 0.00 | 52 | 1016.7 |
| 20260505194506 | 79 | 73 | 2.6 | 11.3 | 0.00 | 0.00 | 0.00 | 52 | 1016.8 |
| 20260505194402 | 79 | 202 | 2.6 | 11.3 | 0.00 | 0.00 | 0.00 | 52 | 1016.8 |
| 20260505194304 | 79 | 127 | 4.3 | 11.3 | 0.00 | 0.00 | 0.00 | 51 | 1016.8 |
| 20260505194203 | 79 | 98 | 7.0 | 11.3 | 0.00 | 0.00 | 0.00 | 51 | 1016.9 |
| 20260505194102 | 79 | 102 | 7.0 | 13.9 | 0.00 | 0.00 | 0.00 | 51 | 1016.9 |
| 20260505194005 | 79 | 169 | 5.2 | 11.3 | 0.00 | 0.00 | 0.00 | 52 | 1016.9 |
| 20260505193803 | 79 | 128 | 3.5 | 11.3 | 0.00 | 0.00 | 0.00 | 53 | 1017.0 |
| 20260505193703 | 79 | 153 | 5.2 | 12.2 | 0.00 | 0.00 | 0.00 | 51 | 1017.0 |
| 20260505193604 | 79 | 174 | 5.2 | 12.2 | 0.00 | 0.00 | 0.00 | 51 | 1016.9 |
| 20260505193505 | 79 | 186 | 5.2 | 12.2 | 0.00 | 0.00 | 0.00 | 54 | 1016.9 |
| 20260505193402 | 79 | 155 | 5.2 | 12.2 | 0.00 | 0.00 | 0.00 | 52 | 1016.9 |
| 20260505193304 | 79 | 159 | 4.3 | 12.2 | 0.00 | 0.00 | 0.00 | 52 | 1016.9 |
| 20260505193204 | 79 | 86 | 5.2 | 12.2 | 0.00 | 0.00 | 0.00 | 52 | 1017.0 |
| 20260505193103 | 79 | 135 | 6.1 | 12.2 | 0.00 | 0.00 | 0.00 | 51 | 1017.0 |
| 20260505193006 | 79 | 138 | 6.1 | 12.2 | 0.00 | 0.00 | 0.00 | 51 | 1017.0 |
| 20260505192804 | 79 | 137 | 4.3 | 11.3 | 0.00 | 0.00 | 0.00 | 53 | 1017.0 |
| 20260505192603 | 79 | 129 | 5.2 | 10.4 | 0.00 | 0.00 | 0.00 | 51 | 1017.1 |
| 20260505192505 | 79 | 82 | 4.3 | 10.4 | 0.00 | 0.00 | 0.00 | 51 | 1017.1 |
| 20260505192403 | 79 | 67 | 4.3 | 10.4 | 0.00 | 0.00 | 0.00 | 51 | 1017.1 |
| 20260505192305 | 79 | 182 | 3.5 | 13.9 | 0.00 | 0.00 | 0.00 | 49 | 1017.1 |
| 20260505192103 | 79 | 101 | 6.1 | 13.9 | 0.00 | 0.00 | 0.00 | 51 | 1017.2 |
| 20260505192005 | 79 | 100 | 4.3 | 13.9 | 0.00 | 0.00 | 0.00 | 51 | 1017.3 |
| 20260505191803 | 79 | 173 | 2.6 | 13.9 | 0.00 | 0.00 | 0.00 | 51 | 1017.2 |
| 20260505191703 | 79 | 159 | 4.3 | 13.9 | 0.00 | 0.00 | 0.00 | 52 | 1017.2 |
| 20260505191604 | 79 | 134 | 6.1 | 13.9 | 0.00 | 0.00 | 0.00 | 50 | 1017.3 |
| 20260505191505 | 79 | 143 | 5.2 | 13.9 | 0.00 | 0.00 | 0.00 | 50 | 1017.2 |
| 20260505191303 | 79 | 117 | 4.3 | 9.6 | 0.00 | 0.00 | 0.00 | 53 | 1017.3 |
| 20260505191203 | 79 | 175 | 4.3 | 9.6 | 0.00 | 0.00 | 0.00 | 53 | 1017.3 |
| 20260505190903 | 79 | 155 | 4.3 | 9.6 | 0.00 | 0.00 | 0.00 | 52 | 1017.4 |
| 20260505190802 | 79 | 213 | 3.5 | 9.6 | 0.00 | 0.00 | 0.00 | 54 | 1017.4 |
| 20260505190704 | 79 | 161 | 4.3 | 9.6 | 0.00 | 0.00 | 0.00 | 52 | 1017.4 |
| 20260505190403 | 79 | 136 | 4.3 | 8.7 | 0.00 | 0.00 | 0.00 | 52 | 1017.4 |
| 20260505190303 | 79 | 230 | 6.1 | 8.7 | 0.00 | 0.00 | 0.00 | 52 | 1017.4 |
| 20260505190204 | 79 | 167 | 5.2 | 9.6 | 0.00 | 0.00 | 0.00 | 52 | 1017.4 |
| 20260505190104 | 79 | 136 | 6.1 | 8.7 | 0.00 | 0.00 | 0.00 | 53 | 1017.3 |
| 20260505190007 | 79 | 178 | 6.1 | 8.7 | 0.00 | 0.00 | 0.00 | 53 | 1017.4 |
| 20260505185905 | 79 | 191 | 5.2 | 8.7 | 0.00 | 0.00 | 0.00 | 52 | 1017.3 |
| 20260505185703 | 79 | 198 | 3.5 | 13.0 | 0.00 | 0.00 | 0.00 | 52 | 1017.4 |
| 20260505185603 | 79 | 153 | 4.3 | 13.0 | 0.00 | 0.00 | 0.00 | 52 | 1017.4 |
| 20260505185506 | 79 | 190 | 6.1 | 13.0 | 0.00 | 0.00 | 0.00 | 52 | 1017.4 |
| 20260505185404 | 79 | 152 | 5.2 | 13.0 | 0.00 | 0.00 | 0.00 | 53 | 1017.4 |
| 20260505185305 | 79 | 127 | 4.3 | 13.0 | 0.00 | 0.00 | 0.00 | 54 | 1017.3 |
| 20260505185203 | 79 | 202 | 5.2 | 13.0 | 0.00 | 0.00 | 0.00 | 53 | 1017.4 |
| 20260505184703 | 79 | 96 | 5.2 | 11.3 | 0.00 | 0.00 | 0.00 | 53 | 1017.3 |
| 20260505184603 | 79 | 103 | 3.5 | 11.3 | 0.00 | 0.00 | 0.00 | 53 | 1017.3 |
| 20260505184506 | 79 | 85 | 4.3 | 11.3 | 0.00 | 0.00 | 0.00 | 54 | 1017.3 |
| 20260505184403 | 78 | 170 | 4.3 | 11.3 | 0.00 | 0.00 | 0.00 | 54 | 1017.3 |
| 20260505184303 | 78 | 209 | 4.3 | 11.3 | 0.00 | 0.00 | 0.00 | 54 | 1017.2 |
| 20260505184203 | 78 | 125 | 6.1 | 11.3 | 0.00 | 0.00 | 0.00 | 52 | 1017.2 |
| 20260505184103 | 79 | 205 | 5.2 | 11.3 | 0.00 | 0.00 | 0.00 | 53 | 1017.3 |
| 20260505184005 | 79 | 207 | 5.2 | 12.2 | 0.00 | 0.00 | 0.00 | 55 | 1017.1 |
| 20260505183904 | 79 | 97 | 7.0 | 12.2 | 0.00 | 0.00 | 0.00 | 54 | 1017.2 |
| 20260505183803 | 79 | 181 | 7.0 | 13.0 | 0.00 | 0.00 | 0.00 | 53 | 1017.3 |
| 20260505183703 | 79 | 120 | 6.1 | 10.4 | 0.00 | 0.00 | 0.00 | 53 | 1017.2 |
| 20260505183604 | 79 | 163 | 6.1 | 9.6 | 0.00 | 0.00 | 0.00 | 53 | 1017.3 |
| 20260505183506 | 79 | 180 | 6.1 | 9.6 | 0.00 | 0.00 | 0.00 | 53 | 1017.3 |
| 20260505183403 | 79 | 136 | 7.0 | 9.6 | 0.00 | 0.00 | 0.00 | 53 | 1017.3 |
| 20260505183303 | 79 | 147 | 5.2 | 9.6 | 0.00 | 0.00 | 0.00 | 53 | 1017.2 |
| 20260505183204 | 79 | 162 | 5.2 | 10.4 | 0.00 | 0.00 | 0.00 | 52 | 1017.2 |
| 20260505183103 | 79 | 85 | 5.2 | 11.3 | 0.00 | 0.00 | 0.00 | 53 | 1017.2 |
| 20260505183007 | 79 | 156 | 5.2 | 10.4 | 0.00 | 0.00 | 0.00 | 54 | 1017.2 |
| 20260505182703 | 80 | 232 | 5.2 | 10.4 | 0.00 | 0.00 | 0.00 | 53 | 1017.2 |
| 20260505182603 | 80 | 127 | 5.2 | 10.4 | 0.00 | 0.00 | 0.00 | 53 | 1017.3 |
| 20260505182505 | 80 | 103 | 5.2 | 10.4 | 0.00 | 0.00 | 0.00 | 53 | 1017.1 |
| 20260505182403 | 80 | 125 | 5.2 | 12.2 | 0.00 | 0.00 | 0.00 | 52 | 1017.1 |
| 20260505182305 | 79 | 178 | 4.3 | 10.4 | 0.00 | 0.00 | 0.00 | 53 | 1017.1 |
| 20260505182203 | 79 | 84 | 4.3 | 10.4 | 0.00 | 0.00 | 0.00 | 55 | 1017.1 |
| 20260505182103 | 79 | 141 | 5.2 | 10.4 | 0.00 | 0.00 | 0.00 | 54 | 1017.0 |
| 20260505182006 | 79 | 141 | 5.2 | 10.4 | 0.00 | 0.00 | 0.00 | 53 | 1017.0 |
| 20260505181904 | 79 | 94 | 5.2 | 10.4 | 0.00 | 0.00 | 0.00 | 54 | 1017.0 |
| 20260505181803 | 79 | 173 | 5.2 | 10.4 | 0.00 | 0.00 | 0.00 | 54 | 1017.1 |
| 20260505181703 | 79 | 78 | 5.2 | 10.4 | 0.00 | 0.00 | 0.00 | 54 | 1017.0 |
| 20260505181603 | 79 | 214 | 6.1 | 10.4 | 0.00 | 0.00 | 0.00 | 53 | 1017.0 |
| 20260505181506 | 79 | 144 | 6.1 | 10.4 | 0.00 | 0.00 | 0.00 | 54 | 1017.1 |
| 20260505181403 | 79 | 149 | 6.1 | 10.4 | 0.00 | 0.00 | 0.00 | 54 | 1017.1 |
| 20260505181303 | 79 | 140 | 7.0 | 10.4 | 0.00 | 0.00 | 0.00 | 54 | 1017.0 |
| 20260505181203 | 79 | 182 | 4.3 | 10.4 | 0.00 | 0.00 | 0.00 | 54 | 1017.1 |
| 20260505180903 | 79 | 142 | 5.2 | 10.4 | 0.00 | 0.00 | 0.00 | 55 | 1017.1 |
| 20260505180804 | 79 | 159 | 4.3 | 10.4 | 0.00 | 0.00 | 0.00 | 55 | 1017.1 |
| 20260505180704 | 79 | 156 | 3.5 | 9.6 | 0.00 | 0.00 | 0.00 | 56 | 1017.1 |
| 20260505180603 | 79 | 230 | 5.2 | 9.6 | 0.00 | 0.00 | 0.00 | 55 | 1017.2 |
| 20260505180506 | 79 | 142 | 5.2 | 9.6 | 0.00 | 0.00 | 0.00 | 56 | 1017.1 |
| 20260505180302 | 79 | 189 | 5.2 | 9.6 | 0.00 | 0.00 | 0.00 | 54 | 1017.1 |
| 20260505180203 | 79 | 164 | 5.2 | 9.6 | 0.00 | 0.00 | 0.00 | 55 | 1017.1 |
| 20260505180007 | 79 | 189 | 6.1 | 9.6 | 0.00 | 0.00 | 0.00 | 54 | 1017.1 |
| 20260505175802 | 79 | 119 | 4.3 | 10.4 | 0.00 | 0.00 | 0.00 | 54 | 1017.1 |
| 20260505175703 | 79 | 177 | 6.1 | 12.2 | 0.00 | 0.00 | 0.00 | 53 | 1017.1 |
| 20260505175602 | 79 | 134 | 5.2 | 12.2 | 0.00 | 0.00 | 0.00 | 55 | 1017.3 |
| 20260505175506 | 79 | 107 | 4.3 | 12.2 | 0.00 | 0.00 | 0.00 | 56 | 1017.1 |
| 20260505175404 | 79 | 150 | 4.3 | 12.2 | 0.00 | 0.00 | 0.00 | 53 | 1017.2 |
| 20260505175305 | 79 | 155 | 4.3 | 12.2 | 0.00 | 0.00 | 0.00 | 53 | 1017.2 |
| 20260505175203 | 79 | 81 | 3.5 | 12.2 | 0.00 | 0.00 | 0.00 | 54 | 1017.1 |
| 20260505174903 | 79 | 161 | 6.1 | 12.2 | 0.00 | 0.00 | 0.00 | 53 | 1017.1 |
| 20260505174603 | 79 | 117 | 2.6 | 11.3 | 0.00 | 0.00 | 0.00 | 53 | 1017.1 |
| 20260505174506 | 79 | 155 | 3.5 | 11.3 | 0.00 | 0.00 | 0.00 | 54 | 1017.0 |
| 20260505174402 | 79 | 171 | 4.3 | 11.3 | 0.00 | 0.00 | 0.00 | 53 | 1017.0 |
| 20260505174303 | 79 | 97 | 7.0 | 11.3 | 0.00 | 0.00 | 0.00 | 53 | 1017.1 |
| 20260505174204 | 79 | 81 | 6.1 | 11.3 | 0.00 | 0.00 | 0.00 | 53 | 1017.0 |
| 20260505173904 | 79 | 151 | 5.2 | 11.3 | 0.00 | 0.00 | 0.00 | 55 | 1016.9 |
| 20260505173803 | 79 | 169 | 3.5 | 11.3 | 0.00 | 0.00 | 0.00 | 56 | 1017.0 |
| 20260505173703 | 79 | 165 | 4.3 | 11.3 | 0.00 | 0.00 | 0.00 | 54 | 1016.9 |
| 20260505173604 | 79 | 96 | 3.5 | 11.3 | 0.00 | 0.00 | 0.00 | 53 | 1017.0 |
| 20260505173506 | 79 | 159 | 4.3 | 11.3 | 0.00 | 0.00 | 0.00 | 55 | 1017.1 |
| 20260505173303 | 79 | 194 | 4.3 | 9.6 | 0.00 | 0.00 | 0.00 | 54 | 1017.1 |
| 20260505173204 | 79 | 155 | 3.5 | 7.8 | 0.00 | 0.00 | 0.00 | 53 | 1017.2 |
| 20260505173103 | 79 | 98 | 3.5 | 10.4 | 0.00 | 0.00 | 0.00 | 54 | 1017.3 |
| 20260505173006 | 79 | 80 | 3.5 | 10.4 | 0.00 | 0.00 | 0.00 | 54 | 1017.2 |
| 20260505172903 | 79 | 145 | 4.3 | 10.4 | 0.00 | 0.00 | 0.00 | 56 | 1017.3 |
| 20260505172803 | 79 | 169 | 3.5 | 10.4 | 0.00 | 0.00 | 0.00 | 54 | 1017.4 |
| 20260505172703 | 79 | 145 | 2.6 | 10.4 | 0.00 | 0.00 | 0.00 | 56 | 1017.4 |
| 20260505172603 | 79 | 154 | 2.6 | 10.4 | 0.00 | 0.00 | 0.00 | 56 | 1017.3 |
| 20260505172506 | 78 | 92 | 3.5 | 10.4 | 0.00 | 0.00 | 0.00 | 55 | 1017.4 |
| 20260505172305 | 78 | 98 | 5.2 | 10.4 | 0.00 | 0.00 | 0.00 | 55 | 1017.5 |
| 20260505172203 | 78 | 105 | 4.3 | 10.4 | 0.00 | 0.00 | 0.00 | 55 | 1017.5 |
| 20260505172103 | 78 | 146 | 3.5 | 11.3 | 0.00 | 0.00 | 0.00 | 55 | 1017.5 |
| 20260505172006 | 78 | 234 | 4.3 | 9.6 | 0.00 | 0.00 | 0.00 | 55 | 1017.5 |
| 20260505171903 | 78 | 74 | 5.2 | 9.6 | 0.00 | 0.00 | 0.00 | 53 | 1017.5 |
| 20260505171803 | 78 | 155 | 4.3 | 9.6 | 0.00 | 0.00 | 0.00 | 54 | 1017.4 |
| 20260505171702 | 78 | 136 | 4.3 | 9.6 | 0.00 | 0.00 | 0.00 | 54 | 1017.5 |
| 20260505171604 | 78 | 48 | 4.3 | 9.6 | 0.00 | 0.00 | 0.00 | 54 | 1017.5 |
| 20260505171506 | 78 | 188 | 7.0 | 9.6 | 0.00 | 0.00 | 0.00 | 53 | 1017.5 |
| 20260505171403 | 78 | 159 | 6.1 | 9.6 | 0.00 | 0.00 | 0.00 | 54 | 1017.5 |
| 20260505171303 | 78 | 173 | 5.2 | 9.6 | 0.00 | 0.00 | 0.00 | 54 | 1017.5 |
| 20260505171204 | 78 | 175 | 5.2 | 9.6 | 0.00 | 0.00 | 0.00 | 54 | 1017.4 |
| 20260505170903 | 78 | 203 | 2.6 | 12.2 | 0.00 | 0.00 | 0.00 | 55 | 1017.5 |
| 20260505170804 | 78 | 82 | 3.5 | 12.2 | 0.00 | 0.00 | 0.00 | 54 | 1017.5 |
| 20260505170703 | 78 | 145 | 4.3 | 12.2 | 0.00 | 0.00 | 0.00 | 53 | 1017.5 |
| 20260505170604 | 78 | 215 | 4.3 | 12.2 | 0.00 | 0.00 | 0.00 | 54 | 1017.6 |
| 20260505170506 | 78 | 142 | 3.5 | 12.2 | 0.00 | 0.00 | 0.00 | 53 | 1017.6 |
| 20260505170402 | 78 | 118 | 3.5 | 12.2 | 0.00 | 0.00 | 0.00 | 53 | 1017.7 |
| 20260505170304 | 78 | 178 | 4.3 | 12.2 | 0.00 | 0.00 | 0.00 | 54 | 1017.7 |
| 20260505170204 | 78 | 163 | 5.2 | 12.2 | 0.00 | 0.00 | 0.00 | 54 | 1017.6 |
| 20260505170006 | 78 | 207 | 5.2 | 13.0 | 0.00 | 0.00 | 0.00 | 53 | 1017.6 |
| 20260505165903 | 78 | 195 | 3.5 | 7.8 | 0.00 | 0.00 | 0.00 | 53 | 1017.6 |
| 20260505165603 | 79 | 182 | 4.3 | 7.8 | 0.00 | 0.00 | 0.00 | 52 | 1017.6 |
| 20260505165505 | 79 | 159 | 5.2 | 7.8 | 0.00 | 0.00 | 0.00 | 52 | 1017.6 |
| 20260505165403 | 79 | 182 | 4.3 | 7.8 | 0.00 | 0.00 | 0.00 | 53 | 1017.6 |
| 20260505165306 | 79 | 175 | 3.5 | 7.0 | 0.00 | 0.00 | 0.00 | 53 | 1017.6 |
| 20260505165203 | 78 | 144 | 3.5 | 7.8 | 0.00 | 0.00 | 0.00 | 55 | 1017.7 |
| 20260505164903 | 78 | 77 | 2.6 | 8.7 | 0.00 | 0.00 | 0.00 | 54 | 1017.7 |
| 20260505164804 | 78 | 84 | 2.6 | 8.7 | 0.00 | 0.00 | 0.00 | 56 | 1017.7 |
| 20260505164603 | 78 | 165 | 2.6 | 8.7 | 0.00 | 0.00 | 0.00 | 54 | 1017.7 |
| 20260505164505 | 78 | 117 | 3.5 | 8.7 | 0.00 | 0.00 | 0.00 | 54 | 1017.8 |
| 20260505164403 | 77 | 144 | 4.3 | 8.7 | 0.00 | 0.00 | 0.00 | 54 | 1017.8 |
| 20260505164303 | 77 | 128 | 4.3 | 8.7 | 0.00 | 0.00 | 0.00 | 56 | 1017.7 |
| 20260505164203 | 77 | 177 | 6.1 | 8.7 | 0.00 | 0.00 | 0.00 | 55 | 1017.6 |
| 20260505164103 | 77 | 248 | 6.1 | 8.7 | 0.00 | 0.00 | 0.00 | 54 | 1017.7 |
| 20260505164006 | 77 | 186 | 4.3 | 7.8 | 0.00 | 0.00 | 0.00 | 56 | 1017.8 |
| 20260505163903 | 77 | 171 | 4.3 | 7.0 | 0.00 | 0.00 | 0.00 | 55 | 1017.8 |
| 20260505163603 | 77 | 212 | 3.5 | 8.7 | 0.00 | 0.00 | 0.00 | 56 | 1017.8 |
| 20260505163505 | 77 | 175 | 3.5 | 8.7 | 0.00 | 0.00 | 0.00 | 57 | 1017.9 |
| 20260505163403 | 77 | 167 | 1.7 | 8.7 | 0.00 | 0.00 | 0.00 | 56 | 1017.9 |
| 20260505163304 | 77 | 163 | 1.7 | 8.7 | 0.00 | 0.00 | 0.00 | 56 | 1017.9 |
| 20260505163203 | 77 | 133 | 2.6 | 8.7 | 0.00 | 0.00 | 0.00 | 56 | 1017.9 |
| 20260505163104 | 77 | 200 | 5.2 | 8.7 | 0.00 | 0.00 | 0.00 | 55 | 1017.9 |
| 20260505163009 | 77 | 205 | 6.1 | 8.7 | 0.00 | 0.00 | 0.00 | 55 | 1017.9 |
| 20260505162905 | 77 | 196 | 4.3 | 9.6 | 0.00 | 0.00 | 0.00 | 57 | 1018.0 |
| 20260505162803 | 77 | 182 | 2.6 | 8.7 | 0.00 | 0.00 | 0.00 | 55 | 1017.9 |
| 20260505162703 | 77 | 92 | 3.5 | 8.7 | 0.00 | 0.00 | 0.00 | 56 | 1018.0 |
| 20260505162603 | 76 | 204 | 3.5 | 8.7 | 0.00 | 0.00 | 0.00 | 54 | 1018.0 |
| 20260505162506 | 77 | 191 | 4.3 | 8.7 | 0.00 | 0.00 | 0.00 | 54 | 1018.0 |
| 20260505162403 | 77 | 116 | 5.2 | 8.7 | 0.00 | 0.00 | 0.00 | 54 | 1018.0 |
| 20260505162306 | 77 | 207 | 3.5 | 7.8 | 0.00 | 0.00 | 0.00 | 55 | 1018.1 |
| 20260505162203 | 77 | 175 | 1.7 | 7.8 | 0.00 | 0.00 | 0.00 | 55 | 1018.0 |
| 20260505162103 | 77 | 92 | 1.7 | 6.1 | 0.00 | 0.00 | 0.00 | 56 | 1018.2 |
| 20260505162006 | 76 | 174 | 1.7 | 7.8 | 0.00 | 0.00 | 0.00 | 56 | 1018.2 |
| 20260505161803 | 76 | 78 | 3.5 | 7.8 | 0.00 | 0.00 | 0.00 | 54 | 1018.2 |
| 20260505161703 | 76 | 186 | 3.5 | 8.7 | 0.00 | 0.00 | 0.00 | 56 | 1018.3 |
| 20260505161603 | 76 | 169 | 3.5 | 8.7 | 0.00 | 0.00 | 0.00 | 55 | 1018.2 |
| 20260505161506 | 76 | 167 | 3.5 | 8.7 | 0.00 | 0.00 | 0.00 | 55 | 1018.2 |
| 20260505161403 | 76 | 219 | 3.5 | 8.7 | 0.00 | 0.00 | 0.00 | 57 | 1018.2 |
| 20260505161303 | 76 | 231 | 4.3 | 8.7 | 0.00 | 0.00 | 0.00 | 56 | 1018.3 |
| 20260505161203 | 76 | 155 | 4.3 | 8.7 | 0.00 | 0.00 | 0.00 | 56 | 1018.3 |
| 20260505161103 | 76 | 212 | 4.3 | 8.7 | 0.00 | 0.00 | 0.00 | 56 | 1018.3 |
| 20260505161006 | 76 | 177 | 5.2 | 8.7 | 0.00 | 0.00 | 0.00 | 56 | 1018.3 |
| 20260505160904 | 76 | 192 | 5.2 | 8.7 | 0.00 | 0.00 | 0.00 | 56 | 1018.3 |
| 20260505160803 | 76 | 191 | 3.5 | 8.7 | 0.00 | 0.00 | 0.00 | 57 | 1018.3 |
| 20260505160703 | 76 | 198 | 3.5 | 7.0 | 0.00 | 0.00 | 0.00 | 58 | 1018.2 |
| 20260505160403 | 76 | 266 | 2.6 | 7.0 | 0.00 | 0.00 | 0.00 | 58 | 1018.3 |
| 20260505160303 | 76 | 140 | 2.6 | 6.1 | 0.00 | 0.00 | 0.00 | 59 | 1018.2 |
| 20260505160204 | 76 | 117 | 2.6 | 6.1 | 0.00 | 0.00 | 0.00 | 61 | 1018.2 |
| 20260505153203 | 76 | 173 | 3.5 | 8.7 | 0.00 | 0.00 | 0.00 | 60 | 1018.3 |
| 20260505153103 | 76 | 148 | 5.2 | 8.7 | 0.00 | 0.00 | 0.00 | 60 | 1018.3 |
| 20260505153006 | 76 | 205 | 5.2 | 8.7 | 0.00 | 0.00 | 0.00 | 60 | 1018.4 |
| 20260505152903 | 76 | 200 | 5.2 | 8.7 | 0.00 | 0.00 | 0.00 | 61 | 1018.3 |
| 20260505152803 | 76 | 154 | 4.3 | 8.7 | 0.00 | 0.00 | 0.00 | 60 | 1018.3 |
| 20260505152703 | 75 | 144 | 2.6 | 8.7 | 0.00 | 0.00 | 0.00 | 61 | 1018.3 |
| 20260505152604 | 75 | 111 | 3.5 | 8.7 | 0.00 | 0.00 | 0.00 | 61 | 1018.3 |
| 20260505152506 | 75 | 103 | 4.3 | 8.7 | 0.00 | 0.00 | 0.00 | 63 | 1018.3 |
| 20260505152305 | 75 | 88 | 0.9 | 5.2 | 0.00 | 0.00 | 0.00 | 62 | 1018.3 |
| 20260505152204 | 75 | 162 | 0.9 | 5.2 | 0.00 | 0.00 | 0.00 | 63 | 1018.3 |
| 20260505151903 | 75 | 56 | 2.6 | 7.8 | 0.00 | 0.00 | 0.00 | 62 | 1018.3 |
| 20260505151803 | 75 | 221 | 1.7 | 7.8 | 0.00 | 0.00 | 0.00 | 62 | 1018.3 |
| 20260505151403 | 75 | 149 | 2.6 | 8.7 | 0.00 | 0.00 | 0.00 | 64 | 1018.4 |
| 20260505151203 | 74 | 173 | 3.5 | 8.7 | 0.00 | 0.00 | 0.00 | 65 | 1018.3 |
| 20260505151103 | 74 | 59 | 2.6 | 8.7 | 0.00 | 0.00 | 0.00 | 64 | 1018.3 |
| 20260505151006 | 74 | 204 | 1.7 | 8.7 | 0.00 | 0.00 | 0.00 | 66 | 1018.3 |
| 20260505150803 | 74 | 163 | 1.7 | 8.7 | 0.00 | 0.00 | 0.00 | 64 | 1018.3 |
| 20260505150703 | 74 | 78 | 3.5 | 8.7 | 0.00 | 0.00 | 0.00 | 63 | 1018.3 |
| 20260505150404 | 74 | 135 | 3.5 | 7.8 | 0.00 | 0.00 | 0.00 | 64 | 1018.4 |
| 20260505150302 | 74 | 150 | 2.6 | 7.8 | 0.00 | 0.00 | 0.00 | 65 | 1018.4 |
| 20260505150203 | 74 | 128 | 3.5 | 7.8 | 0.00 | 0.00 | 0.00 | 64 | 1018.4 |
| 20260505140604 | 70 | 153 | 3.5 | 6.1 | 0.00 | 0.00 | 0.00 | 72 | 1018.2 |
| 20260505140506 | 70 | 174 | 3.5 | 6.1 | 0.00 | 0.00 | 0.00 | 71 | 1018.2 |
| 20260505140403 | 70 | 178 | 1.7 | 6.1 | 0.00 | 0.00 | 0.00 | 71 | 1018.2 |
| 20260505140302 | 70 | 219 | 1.7 | 6.1 | 0.00 | 0.00 | 0.00 | 73 | 1018.2 |
| 20260505140203 | 70 | 246 | 2.6 | 6.1 | 0.00 | 0.00 | 0.00 | 74 | 1018.2 |
| 20260505130302 | 62 | 162 | 1.7 | 3.5 | 0.00 | 0.00 | 0.00 | 90 | 1017.9 |
| 20260505130203 | 62 | 176 | 1.7 | 2.6 | 0.00 | 0.00 | 0.00 | 90 | 1018.0 |
| 20260505125006 | 60 | 190 | 0.9 | 2.6 | 0.00 | 0.00 | 0.00 | 94 | 1018.1 |
| 20260505124803 | 60 | 178 | 1.7 | 2.6 | 0.00 | 0.00 | 0.00 | 95 | 1018.1 |
| 20260505124703 | 60 | 194 | 1.7 | 2.6 | 0.00 | 0.00 | 0.00 | 95 | 1018.0 |
| 20260505124604 | 60 | 166 | 0.9 | 2.6 | 0.00 | 0.00 | 0.00 | 95 | 1018.1 |
| 20260505124505 | 60 | 171 | 0.9 | 1.7 | 0.00 | 0.00 | 0.00 | 96 | 1018.1 |
| 20260505124402 | 59 | 157 | 0.9 | 1.7 | 0.00 | 0.00 | 0.00 | 96 | 1018.2 |
| 20260505124303 | 59 | 150 | 0.9 | 1.7 | 0.00 | 0.00 | 0.00 | 96 | 1018.1 |
| 20260505124204 | 59 | 167 | 0.9 | 2.6 | 0.00 | 0.00 | 0.00 | 96 | 1018.1 |
| 20260505124103 | 59 | 167 | 0.9 | 3.5 | 0.00 | 0.00 | 0.00 | 96 | 1018.1 |
| 20260505124005 | 59 | 167 | 0.9 | 3.5 | 0.00 | 0.00 | 0.00 | 97 | 1018.2 |
| 20260505123802 | 59 | 182 | 0.9 | 3.5 | 0.00 | 0.00 | 0.00 | 97 | 1018.1 |
| 20260505123403 | 58 | 194 | 0.9 | 3.5 | 0.00 | 0.00 | 0.00 | 97 | 1018.0 |
| 20260505123303 | 58 | 203 | 1.7 | 3.5 | 0.00 | 0.00 | 0.00 | 97 | 1018.1 |
| 20260505123202 | 58 | 218 | 1.7 | 3.5 | 0.00 | 0.00 | 0.00 | 97 | 1018.0 |
| 20260505122903 | 57 | 200 | 1.7 | 2.6 | 0.00 | 0.00 | 0.00 | 97 | 1018.0 |
| 20260505122804 | 57 | 199 | 0.9 | 2.6 | 0.00 | 0.00 | 0.00 | 97 | 1018.0 |
| 20260505122703 | 57 | 152 | 0.9 | 2.6 | 0.00 | 0.00 | 0.00 | 97 | 1018.1 |
| 20260505122603 | 57 | 172 | 0.9 | 1.7 | 0.00 | 0.00 | 0.00 | 97 | 1018.0 |
| 20260505122506 | 57 | 139 | 0.9 | 1.7 | 0.00 | 0.00 | 0.00 | 97 | 1018.0 |
| 20260505122403 | 57 | 137 | 0.9 | 1.7 | 0.00 | 0.00 | 0.00 | 97 | 1018.1 |
| 20260505122305 | 56 | 153 | 0.0 | 0.9 | 0.00 | 0.00 | 0.00 | 97 | 1018.0 |
| 20260505122202 | 56 | 153 | 0.0 | 0.9 | 0.00 | 0.00 | 0.00 | 97 | 1018.1 |
| 20260505121903 | 56 | 153 | 0.0 | 0.0 | 0.00 | 0.00 | 0.00 | 97 | 1018.1 |
| 20260505121803 | 56 | 153 | 0.0 | 0.0 | 0.00 | 0.00 | 0.00 | 97 | 1018.0 |
| 20260505121704 | 56 | 153 | 0.0 | 0.0 | 0.00 | 0.00 | 0.00 | 97 | 1018.1 |
| 20260505121603 | 56 | 153 | 0.0 | 0.0 | 0.00 | 0.00 | 0.00 | 97 | 1018.0 |
| 20260505121506 | 56 | 153 | 0.0 | 0.0 | 0.00 | 0.00 | 0.00 | 97 | 1018.1 |
| 20260505121303 | 55 | 153 | 0.0 | 0.0 | 0.00 | 0.00 | 0.00 | 97 | 1018.0 |
| 20260505121203 | 55 | 153 | 0.0 | 0.0 | 0.00 | 0.00 | 0.00 | 97 | 1018.0 |
| 20260505121103 | 55 | 153 | 0.0 | 0.0 | 0.00 | 0.00 | 0.00 | 97 | 1017.9 |
| 20260505121005 | 55 | 153 | 0.0 | 0.0 | 0.00 | 0.00 | 0.00 | 97 | 1018.0 |
| 20260505120904 | 55 | 153 | 0.0 | 0.0 | 0.00 | 0.00 | 0.00 | 97 | 1018.0 |
| 20260505120803 | 55 | 153 | 0.0 | 0.0 | 0.00 | 0.00 | 0.00 | 97 | 1017.9 |
| 20260505120702 | 55 | 153 | 0.0 | 0.0 | 0.00 | 0.00 | 0.00 | 97 | 1018.0 |
| 20260505120603 | 54 | 153 | 0.0 | 0.0 | 0.00 | 0.00 | 0.00 | 97 | 1018.0 |
| 20260505120506 | 54 | 153 | 0.0 | 0.0 | 0.00 | 0.00 | 0.00 | 97 | 1018.0 |
| 20260505120302 | 54 | 153 | 0.0 | 0.0 | 0.00 | 0.00 | 0.00 | 97 | 1017.9 |
| 20260505120202 | 54 | 153 | 0.0 | 0.0 | 0.00 | 0.00 | 0.00 | 97 | 1017.9 |
| 20260505115703 | 53 | 153 | 0.0 | 0.9 | 0.00 | 0.00 | 0.00 | 97 | 1018.0 |
| 20260505115602 | 53 | 153 | 0.0 | 0.9 | 0.00 | 0.00 | 0.00 | 97 | 1017.9 |
| 20260505115505 | 53 | 153 | 0.0 | 0.9 | 0.00 | 0.00 | 0.00 | 97 | 1017.9 |
| 20260505114903 | 53 | 153 | 0.0 | 0.9 | 0.00 | 0.00 | 0.00 | 97 | 1017.9 |
| 20260505114803 | 53 | 153 | 0.0 | 0.9 | 0.00 | 0.00 | 0.00 | 97 | 1017.9 |
| 20260505114603 | 53 | 153 | 0.0 | 0.9 | 0.00 | 0.00 | 0.00 | 96 | 1017.9 |
| 20260505114505 | 52 | 153 | 0.0 | 0.9 | 0.00 | 0.00 | 0.00 | 96 | 1017.9 |
| 20260505114403 | 52 | 153 | 0.0 | 0.9 | 0.00 | 0.00 | 0.00 | 96 | 1017.9 |
| 20260505114304 | 52 | 153 | 0.0 | 0.9 | 0.00 | 0.00 | 0.00 | 96 | 1017.9 |
| 20260505114203 | 52 | 153 | 0.0 | 0.9 | 0.00 | 0.00 | 0.00 | 96 | 1017.9 |
| 20260505114005 | 52 | 153 | 0.0 | 0.9 | 0.00 | 0.00 | 0.00 | 96 | 1017.8 |
| 20260505113803 | 52 | 303 | 0.0 | 0.9 | 0.00 | 0.00 | 0.00 | 96 | 1017.8 |
| 20260505113704 | 52 | 302 | 0.0 | 0.9 | 0.00 | 0.00 | 0.00 | 96 | 1017.8 |
| 20260505113602 | 52 | 292 | 0.0 | 0.9 | 0.00 | 0.00 | 0.00 | 96 | 1017.8 |
| 20260505113506 | 52 | 330 | 0.0 | 0.0 | 0.00 | 0.00 | 0.00 | 96 | 1017.8 |
| 20260505113203 | 52 | 330 | 0.0 | 0.0 | 0.00 | 0.00 | 0.00 | 96 | 1017.8 |
| 20260505113103 | 52 | 330 | 0.0 | 0.0 | 0.00 | 0.00 | 0.00 | 96 | 1017.8 |
| 20260505113006 | 52 | 330 | 0.0 | 0.0 | 0.00 | 0.00 | 0.00 | 96 | 1017.8 |
| 20260505112902 | 51 | 330 | 0.0 | 0.0 | 0.00 | 0.00 | 0.00 | 96 | 1017.7 |
| 20260505112802 | 51 | 330 | 0.0 | 0.0 | 0.00 | 0.00 | 0.00 | 96 | 1017.7 |
| 20260505112703 | 51 | 330 | 0.0 | 0.0 | 0.00 | 0.00 | 0.00 | 96 | 1017.7 |
| 20260505112603 | 51 | 330 | 0.0 | 0.0 | 0.00 | 0.00 | 0.00 | 96 | 1017.8 |
| 20260505112505 | 51 | 330 | 0.0 | 0.9 | 0.00 | 0.00 | 0.00 | 96 | 1017.7 |
| 20260505112304 | 51 | 330 | 0.0 | 0.9 | 0.00 | 0.00 | 0.00 | 96 | 1017.7 |
| 20260505112203 | 51 | 330 | 0.0 | 0.9 | 0.00 | 0.00 | 0.00 | 96 | 1017.7 |
| 20260505112103 | 51 | 330 | 0.0 | 0.9 | 0.00 | 0.00 | 0.00 | 96 | 1017.7 |
| 20260505112006 | 51 | 330 | 0.0 | 0.9 | 0.00 | 0.00 | 0.00 | 96 | 1017.7 |
| 20260505111903 | 51 | 257 | 0.0 | 0.9 | 0.00 | 0.00 | 0.00 | 96 | 1017.7 |
| 20260505111804 | 51 | 257 | 0.0 | 0.9 | 0.00 | 0.00 | 0.00 | 96 | 1017.6 |
| 20260505111704 | 51 | 257 | 0.0 | 0.9 | 0.00 | 0.00 | 0.00 | 96 | 1017.6 |
| 20260505111602 | 51 | 242 | 0.0 | 0.0 | 0.00 | 0.00 | 0.00 | 96 | 1017.6 |
| 20260505111505 | 51 | 240 | 0.0 | 0.0 | 0.00 | 0.00 | 0.00 | 96 | 1017.7 |
| 20260505111403 | 51 | 240 | 0.0 | 0.0 | 0.00 | 0.00 | 0.00 | 96 | 1017.6 |
| 20260505111303 | 51 | 240 | 0.0 | 0.0 | 0.00 | 0.00 | 0.00 | 96 | 1017.6 |
| 20260505111203 | 51 | 240 | 0.0 | 0.0 | 0.00 | 0.00 | 0.00 | 96 | 1017.7 |
| 20260505110903 | 51 | 240 | 0.0 | 0.0 | 0.00 | 0.00 | 0.00 | 95 | 1017.6 |
| 20260505110802 | 51 | 240 | 0.0 | 0.0 | 0.00 | 0.00 | 0.00 | 95 | 1017.5 |
| 20260505110704 | 51 | 240 | 0.0 | 0.0 | 0.00 | 0.00 | 0.00 | 95 | 1017.5 |
| 20260505110604 | 51 | 240 | 0.0 | 0.0 | 0.00 | 0.00 | 0.00 | 95 | 1017.6 |
| 20260505110508 | 51 | 240 | 0.0 | 0.0 | 0.00 | 0.00 | 0.00 | 95 | 1017.5 |
| 20260505110403 | 51 | 240 | 0.0 | 0.9 | 0.00 | 0.00 | 0.00 | 95 | 1017.4 |
| 20260505110302 | 51 | 240 | 0.0 | 0.9 | 0.00 | 0.00 | 0.00 | 95 | 1017.5 |
| 20260505110203 | 51 | 240 | 0.0 | 0.9 | 0.00 | 0.00 | 0.00 | 95 | 1017.4 |
| 20260505102202 | 51 | 199 | 0.0 | 0.0 | 0.00 | 0.00 | 0.00 | 95 | 1016.9 |
| 20260505102101 | 51 | 199 | 0.0 | 0.0 | 0.00 | 0.00 | 0.00 | 95 | 1016.9 |
| 20260505102006 | 51 | 199 | 0.0 | 0.0 | 0.00 | 0.00 | 0.00 | 95 | 1016.9 |
| 20260505101905 | 51 | 199 | 0.0 | 0.0 | 0.00 | 0.00 | 0.00 | 95 | 1016.9 |
| 20260505101803 | 51 | 199 | 0.0 | 0.0 | 0.00 | 0.00 | 0.00 | 95 | 1016.8 |
| 20260505101702 | 51 | 199 | 0.0 | 0.0 | 0.00 | 0.00 | 0.00 | 95 | 1016.8 |
| 20260505101603 | 51 | 199 | 0.0 | 0.0 | 0.00 | 0.00 | 0.00 | 95 | 1016.8 |
| 20260505101505 | 51 | 199 | 0.0 | 0.0 | 0.00 | 0.00 | 0.00 | 95 | 1016.7 |
| 20260505101301 | 51 | 199 | 0.0 | 0.0 | 0.00 | 0.00 | 0.00 | 95 | 1016.8 |
| 20260505101202 | 51 | 199 | 0.0 | 0.0 | 0.00 | 0.00 | 0.00 | 95 | 1016.8 |
| 20260505101102 | 51 | 199 | 0.0 | 0.0 | 0.00 | 0.00 | 0.00 | 95 | 1016.8 |
| 20260505101006 | 51 | 199 | 0.0 | 0.0 | 0.00 | 0.00 | 0.00 | 95 | 1016.8 |
| 20260505100902 | 51 | 199 | 0.0 | 0.0 | 0.00 | 0.00 | 0.00 | 95 | 1016.8 |
| 20260505100803 | 51 | 199 | 0.0 | 0.0 | 0.00 | 0.00 | 0.00 | 95 | 1016.8 |
| 20260505100601 | 51 | 199 | 0.0 | 0.0 | 0.00 | 0.00 | 0.00 | 95 | 1016.8 |
| 20260505100504 | 51 | 199 | 0.0 | 0.0 | 0.00 | 0.00 | 0.00 | 95 | 1016.8 |
| 20260505100401 | 51 | 199 | 0.0 | 0.0 | 0.00 | 0.00 | 0.00 | 95 | 1016.8 |
| 20260505100302 | 51 | 199 | 0.0 | 0.0 | 0.00 | 0.00 | 0.00 | 95 | 1016.8 |
| 20260505100202 | 51 | 199 | 0.0 | 0.0 | 0.00 | 0.00 | 0.00 | 95 | 1016.7 |
| 20260505095904 | 51 | 199 | 0.0 | 0.0 | 0.00 | 0.00 | 0.00 | 95 | 1016.8 |
| 20260505095802 | 51 | 199 | 0.0 | 0.0 | 0.00 | 0.00 | 0.00 | 95 | 1016.7 |
| 20260505095704 | 51 | 199 | 0.0 | 0.0 | 0.00 | 0.00 | 0.00 | 95 | 1016.8 |
| 20260505095603 | 51 | 199 | 0.0 | 0.0 | 0.00 | 0.00 | 0.00 | 95 | 1016.7 |
| 20260505095506 | 51 | 199 | 0.0 | 0.0 | 0.00 | 0.00 | 0.00 | 95 | 1016.7 |
| 20260505095304 | 51 | 199 | 0.0 | 0.0 | 0.00 | 0.00 | 0.00 | 95 | 1016.7 |
| 20260505095203 | 51 | 199 | 0.0 | 0.0 | 0.00 | 0.00 | 0.00 | 95 | 1016.7 |
| 20260505095103 | 51 | 199 | 0.0 | 0.0 | 0.00 | 0.00 | 0.00 | 95 | 1016.7 |
| 20260505095005 | 51 | 199 | 0.0 | 0.0 | 0.00 | 0.00 | 0.00 | 95 | 1016.7 |
| 20260505094904 | 51 | 199 | 0.0 | 0.0 | 0.00 | 0.00 | 0.00 | 95 | 1016.7 |
| 20260505094802 | 51 | 199 | 0.0 | 0.0 | 0.00 | 0.00 | 0.00 | 95 | 1016.7 |
| 20260505094703 | 52 | 199 | 0.0 | 0.0 | 0.00 | 0.00 | 0.00 | 95 | 1016.7 |
| 20260505094302 | 52 | 199 | 0.0 | 0.0 | 0.00 | 0.00 | 0.00 | 94 | 1016.7 |
| 20260505094203 | 52 | 199 | 0.0 | 0.0 | 0.00 | 0.00 | 0.00 | 94 | 1016.7 |
| 20260505094104 | 52 | 199 | 0.0 | 0.0 | 0.00 | 0.00 | 0.00 | 94 | 1016.7 |
| 20260505094005 | 52 | 199 | 0.0 | 0.0 | 0.00 | 0.00 | 0.00 | 94 | 1016.8 |
| 20260505093903 | 52 | 199 | 0.0 | 0.0 | 0.00 | 0.00 | 0.00 | 94 | 1016.7 |
| 20260505093603 | 52 | 199 | 0.0 | 0.0 | 0.00 | 0.00 | 0.00 | 94 | 1016.6 |
| 20260505093505 | 52 | 199 | 0.0 | 0.0 | 0.00 | 0.00 | 0.00 | 94 | 1016.7 |
| 20260505093404 | 52 | 199 | 0.0 | 0.0 | 0.00 | 0.00 | 0.00 | 94 | 1016.7 |
| 20260505093302 | 52 | 199 | 0.0 | 0.0 | 0.00 | 0.00 | 0.00 | 94 | 1016.7 |
| 20260505093203 | 52 | 199 | 0.0 | 0.0 | 0.00 | 0.00 | 0.00 | 94 | 1016.7 |
| 20260505093103 | 52 | 199 | 0.0 | 0.0 | 0.00 | 0.00 | 0.00 | 94 | 1016.6 |
| 20260505093006 | 52 | 199 | 0.0 | 0.0 | 0.00 | 0.00 | 0.00 | 94 | 1016.7 |
| 20260505092904 | 52 | 199 | 0.0 | 0.0 | 0.00 | 0.00 | 0.00 | 94 | 1016.7 |
| 20260505092803 | 52 | 199 | 0.0 | 0.0 | 0.00 | 0.00 | 0.00 | 95 | 1016.7 |
| 20260505092703 | 52 | 199 | 0.0 | 0.0 | 0.00 | 0.00 | 0.00 | 95 | 1016.7 |
| 20260505092602 | 52 | 199 | 0.0 | 0.0 | 0.00 | 0.00 | 0.00 | 95 | 1016.7 |
| 20260505092505 | 52 | 199 | 0.0 | 0.0 | 0.00 | 0.00 | 0.00 | 95 | 1016.7 |
| 20260505092403 | 52 | 199 | 0.0 | 0.0 | 0.00 | 0.00 | 0.00 | 95 | 1016.6 |
| 20260505092305 | 52 | 199 | 0.0 | 0.0 | 0.00 | 0.00 | 0.00 | 95 | 1016.6 |
| 20260505092203 | 52 | 199 | 0.0 | 0.0 | 0.00 | 0.00 | 0.00 | 95 | 1016.7 |
| 20260505092103 | 52 | 199 | 0.0 | 0.0 | 0.00 | 0.00 | 0.00 | 95 | 1016.7 |
| 20260505092006 | 52 | 199 | 0.0 | 0.0 | 0.00 | 0.00 | 0.00 | 95 | 1016.7 |
| 20260505091902 | 52 | 199 | 0.0 | 0.0 | 0.00 | 0.00 | 0.00 | 95 | 1016.7 |
| 20260505091804 | 52 | 199 | 0.0 | 0.0 | 0.00 | 0.00 | 0.00 | 95 | 1016.7 |
| 20260505091703 | 52 | 199 | 0.0 | 0.0 | 0.00 | 0.00 | 0.00 | 94 | 1016.6 |
| 20260505091604 | 52 | 199 | 0.0 | 0.0 | 0.00 | 0.00 | 0.00 | 94 | 1016.6 |
| 20260505091505 | 52 | 199 | 0.0 | 0.0 | 0.00 | 0.00 | 0.00 | 94 | 1016.7 |
| 20260505091404 | 52 | 199 | 0.0 | 0.0 | 0.00 | 0.00 | 0.00 | 94 | 1016.6 |
| 20260505091302 | 52 | 199 | 0.0 | 0.0 | 0.00 | 0.00 | 0.00 | 94 | 1016.7 |
| 20260505091203 | 52 | 199 | 0.0 | 0.0 | 0.00 | 0.00 | 0.00 | 94 | 1016.7 |
| 20260505091103 | 52 | 199 | 0.0 | 0.0 | 0.00 | 0.00 | 0.00 | 94 | 1016.6 |
| 20260505091006 | 52 | 199 | 0.0 | 0.0 | 0.00 | 0.00 | 0.00 | 94 | 1016.7 |
| 20260505090803 | 52 | 199 | 0.0 | 0.0 | 0.00 | 0.00 | 0.00 | 94 | 1016.7 |
| 20260505090603 | 52 | 199 | 0.0 | 0.0 | 0.00 | 0.00 | 0.00 | 94 | 1016.6 |
| 20260505090506 | 52 | 199 | 0.0 | 0.0 | 0.00 | 0.00 | 0.00 | 94 | 1016.7 |
| 20260505090403 | 52 | 199 | 0.0 | 0.0 | 0.00 | 0.00 | 0.00 | 94 | 1016.7 |
| 20260505090302 | 52 | 199 | 0.0 | 0.0 | 0.00 | 0.00 | 0.00 | 94 | 1016.6 |
| 20260505090203 | 52 | 199 | 0.0 | 0.0 | 0.00 | 0.00 | 0.00 | 94 | 1016.7 |
| 20260505090006 | 52 | 199 | 0.0 | 0.0 | 0.00 | 0.00 | 0.00 | 94 | 1016.6 |
| 20260505085602 | 53 | 199 | 0.0 | 0.0 | 0.00 | 0.00 | 0.00 | 94 | 1016.5 |
| 20260505085505 | 53 | 199 | 0.0 | 0.0 | 0.00 | 0.00 | 0.00 | 94 | 1016.6 |
| 20260505085201 | 53 | 199 | 0.0 | 0.0 | 0.00 | 0.00 | 0.00 | 94 | 1016.6 |
| 20260505085101 | 53 | 199 | 0.0 | 0.0 | 0.00 | 0.00 | 0.00 | 95 | 1016.5 |
| 20260505085005 | 53 | 199 | 0.0 | 0.0 | 0.00 | 0.00 | 0.00 | 94 | 1016.5 |
| 20260505084902 | 53 | 199 | 0.0 | 0.0 | 0.00 | 0.00 | 0.00 | 94 | 1016.5 |
| 20260505084802 | 53 | 199 | 0.0 | 0.0 | 0.00 | 0.00 | 0.00 | 94 | 1016.5 |
| 20260505084702 | 53 | 199 | 0.0 | 0.0 | 0.00 | 0.00 | 0.00 | 94 | 1016.5 |
| 20260505084602 | 53 | 199 | 0.0 | 0.0 | 0.00 | 0.00 | 0.00 | 95 | 1016.5 |
| 20260505084506 | 53 | 199 | 0.0 | 0.0 | 0.00 | 0.00 | 0.00 | 94 | 1016.5 |
| 20260505084402 | 53 | 199 | 0.0 | 0.0 | 0.00 | 0.00 | 0.00 | 95 | 1016.5 |
| 20260505084303 | 53 | 199 | 0.0 | 0.0 | 0.00 | 0.00 | 0.00 | 94 | 1016.5 |
| 20260505084202 | 53 | 199 | 0.0 | 0.0 | 0.00 | 0.00 | 0.00 | 94 | 1016.5 |
| 20260505083901 | 53 | 199 | 0.0 | 0.0 | 0.00 | 0.00 | 0.00 | 94 | 1016.5 |
| 20260505083802 | 53 | 199 | 0.0 | 0.0 | 0.00 | 0.00 | 0.00 | 94 | 1016.5 |
| 20260505083703 | 53 | 199 | 0.0 | 0.0 | 0.00 | 0.00 | 0.00 | 94 | 1016.5 |
| 20260505083602 | 53 | 199 | 0.0 | 0.0 | 0.00 | 0.00 | 0.00 | 94 | 1016.5 |
| 20260505083505 | 53 | 199 | 0.0 | 0.0 | 0.00 | 0.00 | 0.00 | 94 | 1016.5 |
| 20260505083403 | 53 | 199 | 0.0 | 0.0 | 0.00 | 0.00 | 0.00 | 94 | 1016.5 |
| 20260505083302 | 53 | 199 | 0.0 | 0.0 | 0.00 | 0.00 | 0.00 | 94 | 1016.5 |
| 20260505083202 | 53 | 199 | 0.0 | 0.0 | 0.00 | 0.00 | 0.00 | 94 | 1016.4 |
| 20260505083102 | 53 | 199 | 0.0 | 0.0 | 0.00 | 0.00 | 0.00 | 94 | 1016.5 |
| 20260505083006 | 53 | 199 | 0.0 | 0.0 | 0.00 | 0.00 | 0.00 | 94 | 1016.5 |
| 20260505082902 | 53 | 199 | 0.0 | 0.0 | 0.00 | 0.00 | 0.00 | 94 | 1016.4 |
| 20260505082801 | 53 | 199 | 0.0 | 0.0 | 0.00 | 0.00 | 0.00 | 94 | 1016.4 |
| 20260505082703 | 53 | 199 | 0.0 | 0.0 | 0.00 | 0.00 | 0.00 | 94 | 1016.4 |
| 20260505082602 | 53 | 199 | 0.0 | 0.0 | 0.00 | 0.00 | 0.00 | 94 | 1016.4 |
| 20260505082505 | 53 | 199 | 0.0 | 0.0 | 0.00 | 0.00 | 0.00 | 94 | 1016.4 |
| 20260505082402 | 53 | 199 | 0.0 | 0.0 | 0.00 | 0.00 | 0.00 | 94 | 1016.4 |
| 20260505082101 | 53 | 199 | 0.0 | 0.0 | 0.00 | 0.00 | 0.00 | 94 | 1016.3 |
| 20260505082005 | 53 | 199 | 0.0 | 0.0 | 0.00 | 0.00 | 0.00 | 94 | 1016.3 |
| 20260505081901 | 53 | 199 | 0.0 | 0.0 | 0.00 | 0.00 | 0.00 | 94 | 1016.3 |
| 20260505081804 | 53 | 199 | 0.0 | 0.0 | 0.00 | 0.00 | 0.00 | 94 | 1016.3 |
| 20260505081702 | 53 | 199 | 0.0 | 0.0 | 0.00 | 0.00 | 0.00 | 94 | 1016.2 |
| 20260505081602 | 53 | 199 | 0.0 | 0.0 | 0.00 | 0.00 | 0.00 | 94 | 1016.2 |
| 20260505081505 | 53 | 199 | 0.0 | 0.0 | 0.00 | 0.00 | 0.00 | 94 | 1016.2 |
| 20260505081402 | 53 | 199 | 0.0 | 0.0 | 0.00 | 0.00 | 0.00 | 94 | 1016.3 |
| 20260505081201 | 53 | 199 | 0.0 | 0.0 | 0.00 | 0.00 | 0.00 | 94 | 1016.3 |
| 20260505081101 | 53 | 199 | 0.0 | 0.0 | 0.00 | 0.00 | 0.00 | 94 | 1016.3 |
| 20260505081005 | 53 | 199 | 0.0 | 0.0 | 0.00 | 0.00 | 0.00 | 94 | 1016.3 |
| 20260505080802 | 53 | 199 | 0.0 | 0.0 | 0.00 | 0.00 | 0.00 | 94 | 1016.2 |
| 20260505080703 | 53 | 199 | 0.0 | 0.0 | 0.00 | 0.00 | 0.00 | 94 | 1016.2 |
| 20260505080601 | 53 | 199 | 0.0 | 0.0 | 0.00 | 0.00 | 0.00 | 94 | 1016.3 |
| 20260505080505 | 53 | 199 | 0.0 | 0.0 | 0.00 | 0.00 | 0.00 | 94 | 1016.3 |
| 20260505080402 | 53 | 199 | 0.0 | 0.0 | 0.00 | 0.00 | 0.00 | 94 | 1016.3 |
| 20260505080301 | 53 | 199 | 0.0 | 0.0 | 0.00 | 0.00 | 0.00 | 94 | 1016.2 |
| 20260505080202 | 53 | 199 | 0.0 | 0.0 | 0.00 | 0.00 | 0.00 | 94 | 1016.2 |
| 20260505080005 | 53 | 199 | 0.0 | 0.0 | 0.00 | 0.00 | 0.00 | 94 | 1016.2 |
| 20260505075901 | 53 | 199 | 0.0 | 0.0 | 0.00 | 0.00 | 0.00 | 94 | 1016.2 |
| 20260505075802 | 53 | 199 | 0.0 | 0.0 | 0.00 | 0.00 | 0.00 | 93 | 1016.2 |
| 20260505075701 | 53 | 199 | 0.0 | 0.0 | 0.00 | 0.00 | 0.00 | 93 | 1016.2 |
| 20260505075601 | 53 | 199 | 0.0 | 0.0 | 0.00 | 0.00 | 0.00 | 93 | 1016.2 |
| 20260505075505 | 53 | 199 | 0.0 | 0.0 | 0.00 | 0.00 | 0.00 | 93 | 1016.3 |
| 20260505075304 | 53 | 199 | 0.0 | 0.0 | 0.00 | 0.00 | 0.00 | 93 | 1016.2 |
| 20260505075202 | 53 | 199 | 0.0 | 0.0 | 0.00 | 0.00 | 0.00 | 93 | 1016.3 |
| 20260505075102 | 53 | 199 | 0.0 | 0.0 | 0.00 | 0.00 | 0.00 | 93 | 1016.3 |
| 20260505075006 | 53 | 199 | 0.0 | 0.0 | 0.00 | 0.00 | 0.00 | 93 | 1016.3 |
| 20260505074902 | 53 | 199 | 0.0 | 0.0 | 0.00 | 0.00 | 0.00 | 93 | 1016.3 |
| 20260505074801 | 53 | 199 | 0.0 | 0.0 | 0.00 | 0.00 | 0.00 | 93 | 1016.2 |
| 20260505074702 | 53 | 199 | 0.0 | 0.0 | 0.00 | 0.00 | 0.00 | 93 | 1016.2 |
| 20260505074601 | 53 | 199 | 0.0 | 0.0 | 0.00 | 0.00 | 0.00 | 93 | 1016.2 |
| 20260505074505 | 53 | 199 | 0.0 | 0.0 | 0.00 | 0.00 | 0.00 | 93 | 1016.2 |
| 20260505074402 | 53 | 199 | 0.0 | 0.0 | 0.00 | 0.00 | 0.00 | 93 | 1016.2 |
| 20260505074301 | 54 | 199 | 0.0 | 0.0 | 0.00 | 0.00 | 0.00 | 93 | 1016.2 |
| 20260505074202 | 53 | 199 | 0.0 | 0.0 | 0.00 | 0.00 | 0.00 | 93 | 1016.3 |
| 20260505074102 | 53 | 199 | 0.0 | 0.0 | 0.00 | 0.00 | 0.00 | 93 | 1016.2 |
| 20260505074006 | 54 | 199 | 0.0 | 0.0 | 0.00 | 0.00 | 0.00 | 93 | 1016.3 |
| 20260505073901 | 54 | 199 | 0.0 | 0.0 | 0.00 | 0.00 | 0.00 | 93 | 1016.2 |
| 20260505073802 | 54 | 199 | 0.0 | 0.0 | 0.00 | 0.00 | 0.00 | 93 | 1016.2 |
| 20260505073701 | 54 | 199 | 0.0 | 0.0 | 0.00 | 0.00 | 0.00 | 93 | 1016.3 |
| 20260505073602 | 54 | 199 | 0.0 | 0.0 | 0.00 | 0.00 | 0.00 | 93 | 1016.3 |
| 20260505073505 | 54 | 199 | 0.0 | 0.0 | 0.00 | 0.00 | 0.00 | 93 | 1016.3 |
| 20260505073402 | 54 | 199 | 0.0 | 0.0 | 0.00 | 0.00 | 0.00 | 93 | 1016.3 |
| 20260505073302 | 54 | 199 | 0.0 | 0.0 | 0.00 | 0.00 | 0.00 | 93 | 1016.3 |
| 20260505073201 | 54 | 199 | 0.0 | 0.0 | 0.00 | 0.00 | 0.00 | 93 | 1016.3 |
| 20260505072602 | 54 | 199 | 0.0 | 0.0 | 0.00 | 0.00 | 0.00 | 93 | 1016.3 |
| 20260505072506 | 54 | 199 | 0.0 | 0.0 | 0.00 | 0.00 | 0.00 | 93 | 1016.3 |
| 20260505072402 | 54 | 199 | 0.0 | 0.0 | 0.00 | 0.00 | 0.00 | 93 | 1016.3 |
| 20260505072301 | 54 | 199 | 0.0 | 0.0 | 0.00 | 0.00 | 0.00 | 93 | 1016.4 |
| 20260505072202 | 54 | 199 | 0.0 | 0.0 | 0.00 | 0.00 | 0.00 | 93 | 1016.3 |
| 20260505072101 | 54 | 199 | 0.0 | 0.0 | 0.00 | 0.00 | 0.00 | 93 | 1016.4 |
| 20260505072005 | 54 | 199 | 0.0 | 0.0 | 0.00 | 0.00 | 0.00 | 93 | 1016.3 |
| 20260505071801 | 54 | 199 | 0.0 | 0.0 | 0.00 | 0.00 | 0.00 | 93 | 1016.3 |
| 20260505071701 | 54 | 199 | 0.0 | 0.0 | 0.00 | 0.00 | 0.00 | 93 | 1016.3 |
| 20260505071602 | 54 | 199 | 0.0 | 0.0 | 0.00 | 0.00 | 0.00 | 93 | 1016.2 |
| 20260505071505 | 54 | 199 | 0.0 | 0.0 | 0.00 | 0.00 | 0.00 | 93 | 1016.3 |
| 20260505071401 | 54 | 199 | 0.0 | 0.0 | 0.00 | 0.00 | 0.00 | 93 | 1016.3 |
| 20260505071202 | 54 | 199 | 0.0 | 0.0 | 0.00 | 0.00 | 0.00 | 93 | 1016.1 |
| 20260505071101 | 54 | 199 | 0.0 | 0.0 | 0.00 | 0.00 | 0.00 | 93 | 1016.2 |
| 20260505071005 | 54 | 199 | 0.0 | 0.0 | 0.00 | 0.00 | 0.00 | 93 | 1016.2 |
| 20260505070901 | 54 | 199 | 0.0 | 0.0 | 0.00 | 0.00 | 0.00 | 93 | 1016.2 |
| 20260505070802 | 54 | 199 | 0.0 | 0.0 | 0.00 | 0.00 | 0.00 | 93 | 1016.2 |
| 20260505070702 | 54 | 199 | 0.0 | 0.0 | 0.00 | 0.00 | 0.00 | 93 | 1016.2 |
| 20260505070602 | 54 | 199 | 0.0 | 0.0 | 0.00 | 0.00 | 0.00 | 93 | 1016.2 |
| 20260505070505 | 54 | 199 | 0.0 | 0.0 | 0.00 | 0.00 | 0.00 | 92 | 1016.3 |
| 20260505070402 | 54 | 199 | 0.0 | 0.0 | 0.00 | 0.00 | 0.00 | 92 | 1016.2 |
| 20260505070303 | 54 | 199 | 0.0 | 0.0 | 0.00 | 0.00 | 0.00 | 93 | 1016.2 |
| 20260505070201 | 54 | 199 | 0.0 | 0.0 | 0.00 | 0.00 | 0.00 | 92 | 1016.2 |
| 20260505070005 | 54 | 199 | 0.0 | 0.0 | 0.00 | 0.00 | 0.00 | 92 | 1016.2 |
| 20260505065902 | 54 | 199 | 0.0 | 0.0 | 0.00 | 0.00 | 0.00 | 92 | 1016.2 |
| 20260505065803 | 54 | 199 | 0.0 | 0.0 | 0.00 | 0.00 | 0.00 | 92 | 1016.2 |
| 20260505065602 | 54 | 199 | 0.0 | 0.0 | 0.00 | 0.00 | 0.00 | 92 | 1016.3 |
| 20260505065505 | 54 | 199 | 0.0 | 0.0 | 0.00 | 0.00 | 0.00 | 92 | 1016.2 |
| 20260505065403 | 54 | 199 | 0.0 | 0.0 | 0.00 | 0.00 | 0.00 | 92 | 1016.2 |
| 20260505065202 | 54 | 199 | 0.0 | 0.0 | 0.00 | 0.00 | 0.00 | 92 | 1016.2 |
| 20260505065101 | 54 | 199 | 0.0 | 0.0 | 0.00 | 0.00 | 0.00 | 92 | 1016.3 |
| 20260505065005 | 54 | 199 | 0.0 | 0.0 | 0.00 | 0.00 | 0.00 | 92 | 1016.3 |
| 20260505064901 | 54 | 199 | 0.0 | 0.0 | 0.00 | 0.00 | 0.00 | 92 | 1016.2 |
| 20260505064801 | 54 | 199 | 0.0 | 0.0 | 0.00 | 0.00 | 0.00 | 92 | 1016.3 |
| 20260505064702 | 54 | 199 | 0.0 | 0.0 | 0.00 | 0.00 | 0.00 | 92 | 1016.3 |
| 20260505064603 | 54 | 199 | 0.0 | 0.0 | 0.00 | 0.00 | 0.00 | 92 | 1016.3 |
| 20260505064506 | 54 | 199 | 0.0 | 0.0 | 0.00 | 0.00 | 0.00 | 92 | 1016.3 |
| 20260505064402 | 54 | 199 | 0.0 | 0.0 | 0.00 | 0.00 | 0.00 | 92 | 1016.3 |
| 20260505064303 | 54 | 199 | 0.0 | 0.0 | 0.00 | 0.00 | 0.00 | 92 | 1016.3 |
| 20260505064203 | 54 | 199 | 0.0 | 0.0 | 0.00 | 0.00 | 0.00 | 92 | 1016.3 |
| 20260505064102 | 54 | 199 | 0.0 | 0.0 | 0.00 | 0.00 | 0.00 | 92 | 1016.3 |
| 20260505064005 | 54 | 199 | 0.0 | 0.0 | 0.00 | 0.00 | 0.00 | 92 | 1016.3 |
| 20260505063902 | 54 | 199 | 0.0 | 0.0 | 0.00 | 0.00 | 0.00 | 92 | 1016.5 |
| 20260505063603 | 54 | 199 | 0.0 | 0.0 | 0.00 | 0.00 | 0.00 | 91 | 1016.3 |
| 20260505063505 | 54 | 199 | 0.0 | 0.0 | 0.00 | 0.00 | 0.00 | 91 | 1016.4 |
| 20260505063403 | 54 | 199 | 0.0 | 0.0 | 0.00 | 0.00 | 0.00 | 91 | 1016.4 |
| 20260505063302 | 54 | 199 | 0.0 | 0.0 | 0.00 | 0.00 | 0.00 | 92 | 1016.4 |
| 20260505063203 | 54 | 199 | 0.0 | 0.0 | 0.00 | 0.00 | 0.00 | 91 | 1016.4 |
| 20260505062803 | 54 | 199 | 0.0 | 0.0 | 0.00 | 0.00 | 0.00 | 91 | 1016.5 |
| 20260505062702 | 54 | 199 | 0.0 | 0.0 | 0.00 | 0.00 | 0.00 | 91 | 1016.5 |
| 20260505062602 | 54 | 199 | 0.0 | 0.0 | 0.00 | 0.00 | 0.00 | 91 | 1016.6 |
| 20260505062506 | 54 | 199 | 0.0 | 0.0 | 0.00 | 0.00 | 0.00 | 91 | 1016.7 |
| 20260505062401 | 54 | 199 | 0.0 | 0.0 | 0.00 | 0.00 | 0.00 | 91 | 1016.6 |
| 20260505062304 | 54 | 199 | 0.0 | 0.0 | 0.00 | 0.00 | 0.00 | 91 | 1016.7 |
| 20260505062202 | 54 | 199 | 0.0 | 0.0 | 0.00 | 0.00 | 0.00 | 91 | 1016.7 |
| 20260505062101 | 54 | 199 | 0.0 | 0.0 | 0.00 | 0.00 | 0.00 | 91 | 1016.7 |
| 20260505062006 | 54 | 199 | 0.0 | 0.0 | 0.00 | 0.00 | 0.00 | 91 | 1016.7 |
| 20260505061902 | 54 | 199 | 0.0 | 0.0 | 0.00 | 0.00 | 0.00 | 91 | 1016.8 |
| 20260505061802 | 54 | 199 | 0.0 | 0.0 | 0.00 | 0.00 | 0.00 | 91 | 1016.8 |
| 20260505061702 | 54 | 199 | 0.0 | 0.0 | 0.00 | 0.00 | 0.00 | 91 | 1016.7 |
| 20260505061601 | 54 | 199 | 0.0 | 0.0 | 0.00 | 0.00 | 0.00 | 91 | 1016.7 |
| 20260505061505 | 54 | 199 | 0.0 | 0.0 | 0.00 | 0.00 | 0.00 | 90 | 1016.7 |
| 20260505061401 | 54 | 199 | 0.0 | 0.0 | 0.00 | 0.00 | 0.00 | 90 | 1016.7 |
| 20260505061303 | 54 | 199 | 0.0 | 0.0 | 0.00 | 0.00 | 0.00 | 90 | 1016.7 |
| 20260505061202 | 54 | 199 | 0.0 | 0.0 | 0.00 | 0.00 | 0.00 | 90 | 1016.8 |
| 20260505061102 | 54 | 199 | 0.0 | 0.0 | 0.00 | 0.00 | 0.00 | 90 | 1016.8 |
| 20260505061005 | 54 | 199 | 0.0 | 0.0 | 0.00 | 0.00 | 0.00 | 90 | 1016.8 |
| 20260505060902 | 54 | 199 | 0.0 | 0.0 | 0.00 | 0.00 | 0.00 | 90 | 1016.8 |
| 20260505060802 | 54 | 199 | 0.0 | 0.0 | 0.00 | 0.00 | 0.00 | 90 | 1016.8 |
| 20260505060702 | 54 | 199 | 0.0 | 0.0 | 0.00 | 0.00 | 0.00 | 90 | 1016.8 |
| 20260505060603 | 54 | 199 | 0.0 | 0.0 | 0.00 | 0.00 | 0.00 | 90 | 1016.8 |
| 20260505060505 | 54 | 199 | 0.0 | 0.0 | 0.00 | 0.00 | 0.00 | 90 | 1016.9 |
| 20260505060402 | 54 | 199 | 0.0 | 0.0 | 0.00 | 0.00 | 0.00 | 90 | 1016.9 |
| 20260505060302 | 54 | 199 | 0.0 | 0.0 | 0.00 | 0.00 | 0.00 | 89 | 1016.9 |
| 20260505060202 | 54 | 199 | 0.0 | 0.0 | 0.00 | 0.00 | 0.00 | 90 | 1016.9 |
| 20260505060103 | 54 | 199 | 0.0 | 0.0 | 0.00 | 0.00 | 0.00 | 90 | 1016.8 |
| 20260505060007 | 54 | 199 | 0.0 | 0.0 | 0.00 | 0.00 | 0.00 | 90 | 1016.8 |
| 20260505055902 | 54 | 199 | 0.0 | 0.0 | 0.00 | 0.00 | 0.00 | 90 | 1016.8 |
| 20260505055801 | 54 | 199 | 0.0 | 0.0 | 0.00 | 0.00 | 0.00 | 90 | 1016.9 |
| 20260505055701 | 54 | 199 | 0.0 | 0.0 | 0.00 | 0.00 | 0.00 | 90 | 1016.9 |
| 20260505055602 | 55 | 199 | 0.0 | 0.0 | 0.00 | 0.00 | 0.00 | 90 | 1016.8 |
| 20260505055506 | 54 | 199 | 0.0 | 0.0 | 0.00 | 0.00 | 0.00 | 90 | 1016.9 |
| 20260505055402 | 55 | 199 | 0.0 | 0.0 | 0.00 | 0.00 | 0.00 | 89 | 1016.9 |
| 20260505055303 | 55 | 199 | 0.0 | 0.0 | 0.00 | 0.00 | 0.00 | 89 | 1017.0 |
| 20260505055102 | 55 | 199 | 0.0 | 0.0 | 0.00 | 0.00 | 0.00 | 89 | 1016.9 |
| 20260505055005 | 55 | 199 | 0.0 | 0.0 | 0.00 | 0.00 | 0.00 | 89 | 1017.0 |
| 20260505054602 | 55 | 199 | 0.0 | 0.0 | 0.00 | 0.00 | 0.00 | 88 | 1017.1 |
| 20260505054505 | 55 | 199 | 0.0 | 0.0 | 0.00 | 0.00 | 0.00 | 88 | 1017.0 |
| 20260505054402 | 55 | 199 | 0.0 | 0.0 | 0.00 | 0.00 | 0.00 | 88 | 1017.0 |
| 20260505054303 | 55 | 199 | 0.0 | 0.0 | 0.00 | 0.00 | 0.00 | 88 | 1017.1 |
| 20260505054203 | 55 | 199 | 0.0 | 0.0 | 0.00 | 0.00 | 0.00 | 89 | 1017.1 |
| 20260505054102 | 55 | 199 | 0.0 | 0.0 | 0.00 | 0.00 | 0.00 | 89 | 1017.1 |
| 20260505054005 | 55 | 199 | 0.0 | 0.0 | 0.00 | 0.00 | 0.00 | 88 | 1017.1 |
| 20260505053901 | 55 | 199 | 0.0 | 0.0 | 0.00 | 0.00 | 0.00 | 88 | 1017.1 |
| 20260505053803 | 55 | 199 | 0.0 | 0.0 | 0.00 | 0.00 | 0.00 | 88 | 1017.0 |
| 20260505053702 | 55 | 199 | 0.0 | 0.0 | 0.00 | 0.00 | 0.00 | 88 | 1017.2 |
| 20260505053602 | 55 | 199 | 0.0 | 0.0 | 0.00 | 0.00 | 0.00 | 88 | 1017.0 |
| 20260505053505 | 55 | 199 | 0.0 | 0.0 | 0.00 | 0.00 | 0.00 | 88 | 1017.2 |
| 20260505053401 | 55 | 199 | 0.0 | 0.0 | 0.00 | 0.00 | 0.00 | 88 | 1017.1 |
| 20260505053302 | 55 | 199 | 0.0 | 0.0 | 0.00 | 0.00 | 0.00 | 88 | 1017.1 |
| 20260505053102 | 55 | 199 | 0.0 | 0.0 | 0.00 | 0.00 | 0.00 | 88 | 1017.1 |
| 20260505053006 | 55 | 199 | 0.0 | 0.0 | 0.00 | 0.00 | 0.00 | 88 | 1017.2 |
| 20260505052904 | 55 | 199 | 0.0 | 0.0 | 0.00 | 0.00 | 0.00 | 87 | 1017.2 |
| 20260505052702 | 55 | 199 | 0.0 | 0.0 | 0.00 | 0.00 | 0.00 | 88 | 1017.2 |
| 20260505052605 | 55 | 199 | 0.0 | 0.0 | 0.00 | 0.00 | 0.00 | 87 | 1017.2 |
| 20260505052505 | 55 | 199 | 0.0 | 0.0 | 0.00 | 0.00 | 0.00 | 87 | 1017.3 |
| 20260505052403 | 55 | 199 | 0.0 | 0.0 | 0.00 | 0.00 | 0.00 | 87 | 1017.3 |
| 20260505052304 | 55 | 199 | 0.0 | 0.0 | 0.00 | 0.00 | 0.00 | 87 | 1017.3 |
| 20260505052102 | 55 | 199 | 0.0 | 0.0 | 0.00 | 0.00 | 0.00 | 87 | 1017.3 |
| 20260505052005 | 56 | 199 | 0.0 | 0.0 | 0.00 | 0.00 | 0.00 | 87 | 1017.3 |
| 20260505051902 | 56 | 199 | 0.0 | 0.0 | 0.00 | 0.00 | 0.00 | 87 | 1017.3 |
| 20260505051803 | 55 | 199 | 0.0 | 0.0 | 0.00 | 0.00 | 0.00 | 87 | 1017.4 |
| 20260505051702 | 56 | 199 | 0.0 | 0.0 | 0.00 | 0.00 | 0.00 | 87 | 1017.4 |
| 20260505051601 | 56 | 199 | 0.0 | 0.0 | 0.00 | 0.00 | 0.00 | 86 | 1017.4 |
| 20260505051506 | 56 | 199 | 0.0 | 0.0 | 0.00 | 0.00 | 0.00 | 87 | 1017.3 |
| 20260505051302 | 56 | 199 | 0.0 | 0.0 | 0.00 | 0.00 | 0.00 | 86 | 1017.4 |
| 20260505051202 | 56 | 199 | 0.0 | 0.0 | 0.00 | 0.00 | 0.00 | 86 | 1017.3 |
| 20260505051103 | 56 | 199 | 0.0 | 0.0 | 0.00 | 0.00 | 0.00 | 86 | 1017.5 |
| 20260505051006 | 56 | 199 | 0.0 | 0.0 | 0.00 | 0.00 | 0.00 | 86 | 1017.4 |
| 20260505050902 | 56 | 199 | 0.0 | 0.0 | 0.00 | 0.00 | 0.00 | 86 | 1017.4 |
| 20260505050802 | 56 | 199 | 0.0 | 0.0 | 0.00 | 0.00 | 0.00 | 86 | 1017.4 |
| 20260505050701 | 56 | 199 | 0.0 | 0.0 | 0.00 | 0.00 | 0.00 | 86 | 1017.4 |
| 20260505050601 | 56 | 199 | 0.0 | 0.0 | 0.00 | 0.00 | 0.00 | 86 | 1017.4 |
| 20260505050505 | 56 | 199 | 0.0 | 0.0 | 0.00 | 0.00 | 0.00 | 86 | 1017.4 |
| 20260505050402 | 56 | 199 | 0.0 | 0.0 | 0.00 | 0.00 | 0.00 | 86 | 1017.5 |
| 20260505050301 | 56 | 199 | 0.0 | 0.0 | 0.00 | 0.00 | 0.00 | 86 | 1017.4 |
| 20260505050201 | 56 | 199 | 0.0 | 0.0 | 0.00 | 0.00 | 0.00 | 86 | 1017.4 |
| 20260505041304 | 57 | 199 | 0.0 | 2.6 | 0.00 | 0.00 | 0.00 | 83 | 1017.4 |
| 20260505041204 | 57 | 199 | 0.0 | 2.6 | 0.00 | 0.00 | 0.00 | 83 | 1017.4 |
| 20260505040904 | 57 | 199 | 0.9 | 2.6 | 0.00 | 0.00 | 0.00 | 83 | 1017.4 |
| 20260505040803 | 57 | 199 | 0.9 | 2.6 | 0.00 | 0.00 | 0.00 | 83 | 1017.5 |
| 20260505040705 | 57 | 199 | 0.9 | 2.6 | 0.00 | 0.00 | 0.00 | 83 | 1017.5 |
| 20260505040604 | 57 | 199 | 0.9 | 2.6 | 0.00 | 0.00 | 0.00 | 83 | 1017.5 |
| 20260505040506 | 57 | 199 | 0.9 | 2.6 | 0.00 | 0.00 | 0.00 | 83 | 1017.5 |
| 20260505040304 | 57 | 202 | 0.9 | 1.7 | 0.00 | 0.00 | 0.00 | 82 | 1017.5 |
| 20260505040207 | 57 | 202 | 0.9 | 1.7 | 0.00 | 0.00 | 0.00 | 82 | 1017.5 |
| 20260505040104 | 57 | 200 | 0.0 | 1.7 | 0.00 | 0.00 | 0.00 | 82 | 1017.5 |
| 20260505040011 | 57 | 200 | 0.9 | 1.7 | 0.00 | 0.00 | 0.00 | 82 | 1017.5 |
| 20260505035906 | 57 | 200 | 0.0 | 1.7 | 0.00 | 0.00 | 0.00 | 82 | 1017.5 |
| 20260505035805 | 57 | 194 | 0.9 | 1.7 | 0.00 | 0.00 | 0.00 | 82 | 1017.5 |
| 20260505035705 | 57 | 194 | 0.9 | 1.7 | 0.00 | 0.00 | 0.00 | 82 | 1017.5 |
| 20260505035605 | 57 | 201 | 0.0 | 1.7 | 0.00 | 0.00 | 0.00 | 82 | 1017.4 |
| 20260505035506 | 58 | 201 | 0.0 | 1.7 | 0.00 | 0.00 | 0.00 | 82 | 1017.5 |
| 20260505035404 | 57 | 201 | 0.0 | 1.7 | 0.00 | 0.00 | 0.00 | 82 | 1017.5 |
| 20260505035305 | 58 | 201 | 0.0 | 1.7 | 0.00 | 0.00 | 0.00 | 82 | 1017.6 |
| 20260505035205 | 58 | 201 | 0.9 | 1.7 | 0.00 | 0.00 | 0.00 | 82 | 1017.5 |
| 20260505035106 | 58 | 201 | 0.9 | 1.7 | 0.00 | 0.00 | 0.00 | 82 | 1017.6 |
| 20260505035006 | 58 | 201 | 0.9 | 1.7 | 0.00 | 0.00 | 0.00 | 82 | 1017.5 |
| 20260505034805 | 58 | 206 | 0.9 | 1.7 | 0.00 | 0.00 | 0.00 | 82 | 1017.5 |
| 20260505034705 | 58 | 198 | 0.0 | 1.7 | 0.00 | 0.00 | 0.00 | 82 | 1017.5 |
| 20260505034405 | 58 | 198 | 0.0 | 1.7 | 0.00 | 0.00 | 0.00 | 81 | 1017.4 |
| 20260505034304 | 58 | 198 | 0.9 | 1.7 | 0.00 | 0.00 | 0.00 | 81 | 1017.5 |
| 20260505034206 | 58 | 198 | 0.9 | 1.7 | 0.00 | 0.00 | 0.00 | 81 | 1017.5 |
| 20260505034106 | 58 | 198 | 0.0 | 1.7 | 0.00 | 0.00 | 0.00 | 81 | 1017.5 |
| 20260505034006 | 58 | 198 | 0.0 | 1.7 | 0.00 | 0.00 | 0.00 | 81 | 1017.4 |
| 20260505033905 | 58 | 205 | 0.0 | 0.9 | 0.00 | 0.00 | 0.00 | 81 | 1017.4 |
| 20260505033805 | 58 | 205 | 0.0 | 0.9 | 0.00 | 0.00 | 0.00 | 81 | 1017.5 |
| 20260505033705 | 58 | 205 | 0.0 | 0.9 | 0.00 | 0.00 | 0.00 | 81 | 1017.4 |
| 20260505033404 | 58 | 205 | 0.0 | 0.9 | 0.00 | 0.00 | 0.00 | 80 | 1017.5 |
| 20260505033305 | 58 | 205 | 0.0 | 0.9 | 0.00 | 0.00 | 0.00 | 80 | 1017.5 |
| 20260505033205 | 58 | 205 | 0.0 | 0.9 | 0.00 | 0.00 | 0.00 | 80 | 1017.5 |
| 20260505033106 | 58 | 205 | 0.0 | 0.0 | 0.00 | 0.00 | 0.00 | 80 | 1017.5 |
| 20260505033007 | 58 | 205 | 0.0 | 0.0 | 0.00 | 0.00 | 0.00 | 80 | 1017.4 |
| 20260505032905 | 58 | 205 | 0.0 | 0.0 | 0.00 | 0.00 | 0.00 | 80 | 1017.5 |
| 20260505032805 | 58 | 205 | 0.0 | 0.0 | 0.00 | 0.00 | 0.00 | 80 | 1017.4 |
| 20260505032706 | 58 | 205 | 0.0 | 0.0 | 0.00 | 0.00 | 0.00 | 80 | 1017.4 |
| 20260505032604 | 58 | 205 | 0.0 | 0.0 | 0.00 | 0.00 | 0.00 | 80 | 1017.5 |
| 20260505032305 | 58 | 205 | 0.0 | 0.0 | 0.00 | 0.00 | 0.00 | 79 | 1017.4 |
| 20260505032205 | 59 | 205 | 0.0 | 0.0 | 0.00 | 0.00 | 0.00 | 79 | 1017.5 |
| 20260505031906 | 59 | 205 | 0.0 | 0.0 | 0.00 | 0.00 | 0.00 | 79 | 1017.4 |
| 20260505031808 | 59 | 205 | 0.0 | 0.0 | 0.00 | 0.00 | 0.00 | 78 | 1017.5 |
| 20260505031706 | 59 | 205 | 0.0 | 0.0 | 0.00 | 0.00 | 0.00 | 78 | 1017.5 |
| 20260505031404 | 59 | 205 | 0.0 | 0.0 | 0.00 | 0.00 | 0.00 | 78 | 1017.5 |
| 20260505031305 | 59 | 205 | 0.0 | 0.0 | 0.00 | 0.00 | 0.00 | 77 | 1017.5 |
| 20260505031205 | 59 | 205 | 0.0 | 0.0 | 0.00 | 0.00 | 0.00 | 77 | 1017.4 |
| 20260505031104 | 59 | 205 | 0.0 | 0.0 | 0.00 | 0.00 | 0.00 | 77 | 1017.5 |
| 20260505031006 | 59 | 205 | 0.0 | 0.0 | 0.00 | 0.00 | 0.00 | 77 | 1017.4 |
| 20260505030905 | 59 | 205 | 0.0 | 0.0 | 0.00 | 0.00 | 0.00 | 77 | 1017.5 |
| 20260505030808 | 59 | 205 | 0.0 | 0.0 | 0.00 | 0.00 | 0.00 | 77 | 1017.4 |
| 20260505030706 | 59 | 205 | 0.0 | 0.0 | 0.00 | 0.00 | 0.00 | 77 | 1017.4 |
| 20260505030605 | 59 | 205 | 0.0 | 0.0 | 0.00 | 0.00 | 0.00 | 76 | 1017.4 |
| 20260505030507 | 59 | 205 | 0.0 | 0.0 | 0.00 | 0.00 | 0.00 | 76 | 1017.4 |
| 20260505030405 | 59 | 205 | 0.0 | 0.0 | 0.00 | 0.00 | 0.00 | 76 | 1017.4 |
| 20260505030305 | 59 | 205 | 0.0 | 0.0 | 0.00 | 0.00 | 0.00 | 76 | 1017.4 |
| 20260505030206 | 59 | 205 | 0.0 | 0.0 | 0.00 | 0.00 | 0.00 | 76 | 1017.5 |
| 20260505025904 | 60 | 205 | 0.0 | 0.0 | 0.00 | 0.00 | 0.00 | 75 | 1017.4 |
| 20260505025804 | 60 | 205 | 0.0 | 0.0 | 0.00 | 0.00 | 0.00 | 75 | 1017.5 |
| 20260505025704 | 60 | 205 | 0.0 | 0.0 | 0.00 | 0.00 | 0.00 | 75 | 1017.4 |
| 20260505025604 | 60 | 205 | 0.0 | 0.0 | 0.00 | 0.00 | 0.00 | 75 | 1017.4 |
| 20260505025506 | 60 | 205 | 0.0 | 0.0 | 0.00 | 0.00 | 0.00 | 74 | 1017.5 |
| 20260505025403 | 60 | 205 | 0.0 | 0.0 | 0.00 | 0.00 | 0.00 | 74 | 1017.5 |
| 20260505025305 | 60 | 205 | 0.0 | 0.0 | 0.00 | 0.00 | 0.00 | 74 | 1017.5 |
| 20260505025205 | 60 | 205 | 0.0 | 0.0 | 0.00 | 0.00 | 0.00 | 74 | 1017.5 |
| 20260505025104 | 60 | 205 | 0.0 | 0.0 | 0.00 | 0.00 | 0.00 | 74 | 1017.5 |
| 20260505025006 | 60 | 205 | 0.0 | 0.0 | 0.00 | 0.00 | 0.00 | 74 | 1017.5 |
| 20260505024904 | 60 | 205 | 0.0 | 0.0 | 0.00 | 0.00 | 0.00 | 74 | 1017.5 |
| 20260505024803 | 60 | 205 | 0.0 | 0.0 | 0.00 | 0.00 | 0.00 | 73 | 1017.5 |
| 20260505024704 | 60 | 205 | 0.0 | 0.0 | 0.00 | 0.00 | 0.00 | 73 | 1017.5 |
| 20260505024604 | 60 | 205 | 0.0 | 0.0 | 0.00 | 0.00 | 0.00 | 73 | 1017.5 |
| 20260505024506 | 60 | 205 | 0.0 | 0.0 | 0.00 | 0.00 | 0.00 | 73 | 1017.4 |
| 20260505024404 | 61 | 205 | 0.0 | 0.0 | 0.00 | 0.00 | 0.00 | 74 | 1017.5 |
| 20260505024304 | 61 | 205 | 0.0 | 0.9 | 0.00 | 0.00 | 0.00 | 74 | 1017.4 |
| 20260505024205 | 61 | 205 | 0.0 | 0.9 | 0.00 | 0.00 | 0.00 | 73 | 1017.4 |
| 20260505024104 | 61 | 205 | 0.0 | 0.9 | 0.00 | 0.00 | 0.00 | 73 | 1017.4 |
| 20260505024006 | 61 | 205 | 0.0 | 0.9 | 0.00 | 0.00 | 0.00 | 72 | 1017.4 |
| 20260505023904 | 61 | 205 | 0.0 | 0.9 | 0.00 | 0.00 | 0.00 | 72 | 1017.4 |
| 20260505023805 | 61 | 205 | 0.0 | 0.9 | 0.00 | 0.00 | 0.00 | 72 | 1017.3 |
| 20260505023404 | 61 | 205 | 0.0 | 0.9 | 0.00 | 0.00 | 0.00 | 72 | 1017.3 |
| 20260505023204 | 61 | 205 | 0.0 | 0.9 | 0.00 | 0.00 | 0.00 | 72 | 1017.3 |
| 20260505023104 | 61 | 205 | 0.0 | 0.9 | 0.00 | 0.00 | 0.00 | 72 | 1017.3 |
| 20260505023006 | 61 | 205 | 0.0 | 0.9 | 0.00 | 0.00 | 0.00 | 72 | 1017.3 |
| 20260505022904 | 61 | 205 | 0.0 | 0.9 | 0.00 | 0.00 | 0.00 | 71 | 1017.2 |
| 20260505022805 | 61 | 205 | 0.0 | 0.9 | 0.00 | 0.00 | 0.00 | 71 | 1017.3 |
| 20260505022704 | 61 | 205 | 0.0 | 0.9 | 0.00 | 0.00 | 0.00 | 70 | 1017.3 |
| 20260505022604 | 61 | 205 | 0.0 | 0.9 | 0.00 | 0.00 | 0.00 | 70 | 1017.2 |
| 20260505022506 | 61 | 205 | 0.0 | 0.9 | 0.00 | 0.00 | 0.00 | 70 | 1017.3 |
| 20260505022205 | 62 | 205 | 0.0 | 0.9 | 0.00 | 0.00 | 0.00 | 70 | 1017.3 |
| 20260505022103 | 62 | 205 | 0.0 | 0.9 | 0.00 | 0.00 | 0.00 | 69 | 1017.3 |
| 20260505022008 | 62 | 205 | 0.0 | 0.9 | 0.00 | 0.00 | 0.00 | 70 | 1017.3 |
| 20260505021904 | 62 | 205 | 0.0 | 1.7 | 0.00 | 0.00 | 0.00 | 69 | 1017.4 |
| 20260505021803 | 62 | 205 | 0.0 | 1.7 | 0.00 | 0.00 | 0.00 | 69 | 1017.3 |
| 20260505021704 | 62 | 205 | 0.0 | 1.7 | 0.00 | 0.00 | 0.00 | 69 | 1017.4 |
| 20260505021604 | 62 | 205 | 0.0 | 1.7 | 0.00 | 0.00 | 0.00 | 69 | 1017.3 |
| 20260505021505 | 62 | 205 | 0.0 | 1.7 | 0.00 | 0.00 | 0.00 | 69 | 1017.3 |
| 20260505021404 | 62 | 205 | 0.0 | 1.7 | 0.00 | 0.00 | 0.00 | 68 | 1017.3 |
| 20260505021304 | 62 | 205 | 0.0 | 1.7 | 0.00 | 0.00 | 0.00 | 68 | 1017.3 |
| 20260505021205 | 62 | 205 | 0.0 | 1.7 | 0.00 | 0.00 | 0.00 | 68 | 1017.3 |
| 20260505021104 | 62 | 205 | 0.9 | 1.7 | 0.00 | 0.00 | 0.00 | 68 | 1017.2 |
| 20260505021005 | 62 | 205 | 0.9 | 1.7 | 0.00 | 0.00 | 0.00 | 68 | 1017.2 |
| 20260505020904 | 62 | 205 | 0.9 | 1.7 | 0.00 | 0.00 | 0.00 | 68 | 1017.2 |
| 20260505020805 | 62 | 205 | 0.9 | 1.7 | 0.00 | 0.00 | 0.00 | 68 | 1017.2 |
| 20260505020704 | 62 | 205 | 0.9 | 0.9 | 0.00 | 0.00 | 0.00 | 67 | 1017.1 |
| 20260505020604 | 62 | 205 | 0.0 | 0.9 | 0.00 | 0.00 | 0.00 | 67 | 1017.2 |
| 20260505020507 | 62 | 205 | 0.0 | 0.9 | 0.00 | 0.00 | 0.00 | 67 | 1017.3 |
| 20260505020404 | 62 | 205 | 0.0 | 0.9 | 0.00 | 0.00 | 0.00 | 67 | 1017.2 |
| 20260505020204 | 62 | 205 | 0.0 | 0.9 | 0.00 | 0.00 | 0.00 | 67 | 1017.3 |
| 20260505020104 | 62 | 205 | 0.0 | 0.9 | 0.00 | 0.00 | 0.00 | 67 | 1017.3 |
| 20260505020006 | 62 | 205 | 0.0 | 0.9 | 0.00 | 0.00 | 0.00 | 66 | 1017.3 |
| 20260505015704 | 63 | 205 | 0.0 | 1.7 | 0.00 | 0.00 | 0.00 | 66 | 1017.2 |
| 20260505015604 | 63 | 205 | 0.0 | 1.7 | 0.00 | 0.00 | 0.00 | 66 | 1017.3 |
| 20260505015506 | 63 | 205 | 0.0 | 1.7 | 0.00 | 0.00 | 0.00 | 66 | 1017.2 |
| 20260505015404 | 63 | 205 | 0.0 | 1.7 | 0.00 | 0.00 | 0.00 | 66 | 1017.3 |
| 20260505015304 | 63 | 205 | 0.0 | 1.7 | 0.00 | 0.00 | 0.00 | 65 | 1017.3 |
| 20260505015204 | 63 | 205 | 0.0 | 1.7 | 0.00 | 0.00 | 0.00 | 65 | 1017.3 |
| 20260505014904 | 63 | 205 | 0.9 | 1.7 | 0.00 | 0.00 | 0.00 | 65 | 1017.2 |
| 20260505014804 | 63 | 206 | 0.9 | 1.7 | 0.00 | 0.00 | 0.00 | 64 | 1017.3 |
| 20260505014704 | 63 | 206 | 0.9 | 1.7 | 0.00 | 0.00 | 0.00 | 64 | 1017.2 |
| 20260505014604 | 63 | 207 | 0.9 | 1.7 | 0.00 | 0.00 | 0.00 | 64 | 1017.3 |
| 20260505014506 | 63 | 207 | 0.9 | 1.7 | 0.00 | 0.00 | 0.00 | 64 | 1017.2 |
| 20260505014404 | 63 | 202 | 0.9 | 1.7 | 0.00 | 0.00 | 0.00 | 64 | 1017.3 |
| 20260505014303 | 63 | 210 | 0.9 | 1.7 | 0.00 | 0.00 | 0.00 | 64 | 1017.3 |
| 20260505014204 | 63 | 210 | 0.9 | 1.7 | 0.00 | 0.00 | 0.00 | 64 | 1017.3 |
| 20260505014104 | 63 | 200 | 0.9 | 2.6 | 0.00 | 0.00 | 0.00 | 64 | 1017.3 |
| 20260505014006 | 63 | 205 | 0.9 | 2.6 | 0.00 | 0.00 | 0.00 | 64 | 1017.2 |
| 20260505013904 | 63 | 205 | 0.9 | 2.6 | 0.00 | 0.00 | 0.00 | 63 | 1017.2 |
| 20260505013803 | 63 | 205 | 0.9 | 2.6 | 0.00 | 0.00 | 0.00 | 63 | 1017.2 |
| 20260505013704 | 64 | 188 | 0.9 | 3.5 | 0.00 | 0.00 | 0.00 | 63 | 1017.2 |
| 20260505013604 | 64 | 186 | 0.9 | 3.5 | 0.00 | 0.00 | 0.00 | 63 | 1017.1 |
| 20260505013505 | 64 | 186 | 0.9 | 3.5 | 0.00 | 0.00 | 0.00 | 63 | 1017.1 |
| 20260505013304 | 64 | 208 | 0.9 | 3.5 | 0.00 | 0.00 | 0.00 | 62 | 1017.2 |
| 20260505013204 | 64 | 188 | 0.9 | 3.5 | 0.00 | 0.00 | 0.00 | 63 | 1017.0 |
| 20260505013104 | 64 | 205 | 0.9 | 3.5 | 0.00 | 0.00 | 0.00 | 62 | 1017.1 |
| 20260505013006 | 64 | 182 | 1.7 | 3.5 | 0.00 | 0.00 | 0.00 | 62 | 1017.1 |
| 20260505012904 | 64 | 200 | 1.7 | 3.5 | 0.00 | 0.00 | 0.00 | 62 | 1017.1 |
| 20260505012704 | 64 | 174 | 1.7 | 3.5 | 0.00 | 0.00 | 0.00 | 62 | 1017.1 |
| 20260505012404 | 64 | 192 | 1.7 | 3.5 | 0.00 | 0.00 | 0.00 | 62 | 1017.1 |
| 20260505012304 | 64 | 201 | 1.7 | 3.5 | 0.00 | 0.00 | 0.00 | 61 | 1017.0 |
| 20260505012204 | 64 | 198 | 1.7 | 2.6 | 0.00 | 0.00 | 0.00 | 61 | 1017.0 |
| 20260505012104 | 64 | 209 | 1.7 | 2.6 | 0.00 | 0.00 | 0.00 | 61 | 1017.0 |
| 20260505012006 | 64 | 194 | 0.9 | 2.6 | 0.00 | 0.00 | 0.00 | 61 | 1017.0 |
| 20260505011903 | 64 | 196 | 0.9 | 2.6 | 0.00 | 0.00 | 0.00 | 60 | 1017.0 |
| 20260505011804 | 65 | 184 | 0.9 | 2.6 | 0.00 | 0.00 | 0.00 | 60 | 1017.0 |
| 20260505011704 | 65 | 173 | 1.7 | 2.6 | 0.00 | 0.00 | 0.00 | 60 | 1017.0 |
| 20260505011604 | 65 | 188 | 1.7 | 3.5 | 0.00 | 0.00 | 0.00 | 60 | 1017.0 |
| 20260505011505 | 65 | 189 | 0.9 | 3.5 | 0.00 | 0.00 | 0.00 | 60 | 1016.9 |
| 20260505011404 | 65 | 208 | 0.9 | 3.5 | 0.00 | 0.00 | 0.00 | 60 | 1016.9 |
| 20260505011103 | 65 | 174 | 0.9 | 3.5 | 0.00 | 0.00 | 0.00 | 60 | 1016.9 |
| 20260505011006 | 65 | 188 | 0.9 | 3.5 | 0.00 | 0.00 | 0.00 | 59 | 1016.9 |
| 20260505010904 | 65 | 196 | 1.7 | 3.5 | 0.00 | 0.00 | 0.00 | 60 | 1016.8 |
| 20260505010804 | 65 | 213 | 1.7 | 3.5 | 0.00 | 0.00 | 0.00 | 59 | 1016.8 |
| 20260505010704 | 65 | 203 | 1.7 | 3.5 | 0.00 | 0.00 | 0.00 | 59 | 1016.9 |
| 20260505010604 | 65 | 187 | 1.7 | 3.5 | 0.00 | 0.00 | 0.00 | 59 | 1016.9 |
| 20260505010506 | 65 | 211 | 1.7 | 3.5 | 0.00 | 0.00 | 0.00 | 59 | 1016.9 |
| 20260505010404 | 65 | 173 | 1.7 | 3.5 | 0.00 | 0.00 | 0.00 | 59 | 1016.9 |
| 20260505010204 | 65 | 186 | 1.7 | 4.3 | 0.00 | 0.00 | 0.00 | 59 | 1016.9 |
| 20260505010104 | 65 | 207 | 2.6 | 4.3 | 0.00 | 0.00 | 0.00 | 58 | 1016.9 |
| 20260505010009 | 65 | 195 | 2.6 | 4.3 | 0.00 | 0.00 | 0.00 | 58 | 1016.9 |
| 20260505005904 | 65 | 178 | 1.7 | 4.3 | 0.00 | 0.00 | 0.00 | 59 | 1016.8 |
| 20260505005805 | 65 | 202 | 1.7 | 4.3 | 0.00 | 0.00 | 0.00 | 58 | 1016.8 |
| 20260505005704 | 65 | 157 | 2.6 | 4.3 | 0.00 | 0.00 | 0.00 | 58 | 1016.9 |
| 20260505005603 | 65 | 206 | 2.6 | 4.3 | 0.00 | 0.00 | 0.00 | 58 | 1016.9 |
| 20260505005506 | 66 | 199 | 2.6 | 4.3 | 0.00 | 0.00 | 0.00 | 58 | 1016.9 |
| 20260505005304 | 66 | 159 | 2.6 | 5.2 | 0.00 | 0.00 | 0.00 | 58 | 1016.9 |
| 20260505005203 | 66 | 165 | 1.7 | 4.3 | 0.00 | 0.00 | 0.00 | 58 | 1016.8 |
| 20260505004904 | 66 | 222 | 1.7 | 4.3 | 0.00 | 0.00 | 0.00 | 58 | 1016.8 |
| 20260505004603 | 66 | 173 | 2.6 | 5.2 | 0.00 | 0.00 | 0.00 | 57 | 1016.7 |
| 20260505004505 | 66 | 196 | 1.7 | 6.1 | 0.00 | 0.00 | 0.00 | 57 | 1016.7 |
| 20260505004404 | 66 | 157 | 1.7 | 6.1 | 0.00 | 0.00 | 0.00 | 57 | 1016.7 |
| 20260505004304 | 66 | 205 | 0.9 | 7.0 | 0.00 | 0.00 | 0.00 | 57 | 1016.7 |
| 20260505004204 | 66 | 175 | 1.7 | 7.0 | 0.00 | 0.00 | 0.00 | 57 | 1016.8 |
| 20260505004103 | 66 | 203 | 1.7 | 7.0 | 0.00 | 0.00 | 0.00 | 57 | 1016.7 |
| 20260505004006 | 66 | 196 | 1.7 | 7.0 | 0.00 | 0.00 | 0.00 | 57 | 1016.7 |
| 20260505003905 | 66 | 219 | 2.6 | 7.0 | 0.00 | 0.00 | 0.00 | 57 | 1016.7 |
| 20260505003804 | 66 | 192 | 3.5 | 7.0 | 0.00 | 0.00 | 0.00 | 57 | 1016.8 |
| 20260505003605 | 66 | 174 | 3.5 | 7.0 | 0.00 | 0.00 | 0.00 | 57 | 1016.6 |
| 20260505003506 | 66 | 178 | 3.5 | 7.0 | 0.00 | 0.00 | 0.00 | 57 | 1016.7 |
| 20260505003403 | 66 | 183 | 3.5 | 5.2 | 0.00 | 0.00 | 0.00 | 57 | 1016.6 |
| 20260505003303 | 66 | 190 | 3.5 | 5.2 | 0.00 | 0.00 | 0.00 | 57 | 1016.6 |
| 20260505003204 | 66 | 173 | 2.6 | 5.2 | 0.00 | 0.00 | 0.00 | 57 | 1016.5 |
| 20260505003103 | 66 | 185 | 1.7 | 5.2 | 0.00 | 0.00 | 0.00 | 57 | 1016.6 |
| 20260505003006 | 67 | 188 | 1.7 | 5.2 | 0.00 | 0.00 | 0.00 | 57 | 1016.6 |
| 20260505002704 | 67 | 171 | 2.6 | 5.2 | 0.00 | 0.00 | 0.00 | 58 | 1016.5 |
| 20260505002605 | 67 | 178 | 1.7 | 5.2 | 0.00 | 0.00 | 0.00 | 58 | 1016.5 |
| 20260505002506 | 67 | 194 | 1.7 | 5.2 | 0.00 | 0.00 | 0.00 | 57 | 1016.5 |
| 20260505002304 | 67 | 159 | 2.6 | 5.2 | 0.00 | 0.00 | 0.00 | 57 | 1016.5 |
| 20260505002204 | 67 | 206 | 1.7 | 5.2 | 0.00 | 0.00 | 0.00 | 57 | 1016.5 |
| 20260505002103 | 67 | 179 | 1.7 | 5.2 | 0.00 | 0.00 | 0.00 | 57 | 1016.6 |
| 20260505002006 | 67 | 213 | 2.6 | 5.2 | 0.00 | 0.00 | 0.00 | 57 | 1016.5 |
| 20260505001903 | 67 | 192 | 2.6 | 5.2 | 0.00 | 0.00 | 0.00 | 57 | 1016.6 |
| 20260505001804 | 67 | 209 | 3.5 | 5.2 | 0.00 | 0.00 | 0.00 | 57 | 1016.6 |
| 20260505001603 | 67 | 185 | 2.6 | 4.3 | 0.00 | 0.00 | 0.00 | 57 | 1016.5 |
| 20260505001505 | 67 | 181 | 2.6 | 4.3 | 0.00 | 0.00 | 0.00 | 57 | 1016.5 |
| 20260505001404 | 67 | 192 | 2.6 | 4.3 | 0.00 | 0.00 | 0.00 | 57 | 1016.5 |
| 20260505001304 | 67 | 206 | 2.6 | 5.2 | 0.00 | 0.00 | 0.00 | 56 | 1016.5 |
| 20260505001203 | 67 | 171 | 2.6 | 5.2 | 0.00 | 0.00 | 0.00 | 57 | 1016.6 |
| 20260505001104 | 68 | 178 | 2.6 | 5.2 | 0.00 | 0.00 | 0.00 | 56 | 1016.4 |
| 20260505001007 | 68 | 217 | 2.6 | 5.2 | 0.00 | 0.00 | 0.00 | 57 | 1016.6 |
| 20260505000904 | 68 | 185 | 2.6 | 5.2 | 0.00 | 0.00 | 0.00 | 56 | 1016.5 |
| 20260505000804 | 68 | 182 | 3.5 | 5.2 | 0.00 | 0.00 | 0.00 | 56 | 1016.5 |
| 20260505000704 | 68 | 245 | 3.5 | 5.2 | 0.00 | 0.00 | 0.00 | 56 | 1016.5 |
| 20260505000603 | 68 | 190 | 3.5 | 7.0 | 0.00 | 0.00 | 0.00 | 56 | 1016.5 |
| 20260505000505 | 68 | 198 | 2.6 | 7.0 | 0.00 | 0.00 | 0.00 | 56 | 1016.5 |
| 20260505000405 | 68 | 182 | 1.7 | 7.0 | 0.00 | 0.00 | 0.00 | 56 | 1016.5 |
| 20260505000304 | 68 | 190 | 1.7 | 7.0 | 0.00 | 0.00 | 0.00 | 56 | 1016.5 |
| 20260505000204 | 68 | 215 | 1.7 | 7.0 | 0.00 | 0.00 | 0.00 | 56 | 1016.5 |
| 20260505000103 | 68 | 195 | 1.7 | 7.0 | 0.00 | 0.00 | 0.00 | 56 | 1016.5 |
| 20260505000008 | 68 | 202 | 2.6 | 7.0 | 0.00 | 0.00 | 0.00 | 56 | 1016.5 |
| 20260504235904 | 68 | 177 | 3.5 | 7.0 | 0.00 | 0.00 | 0.00 | 55 | 1016.5 |
| 20260504235804 | 68 | 182 | 3.5 | 7.0 | 0.00 | 0.00 | 0.00 | 55 | 1016.5 |
| 20260504235704 | 68 | 193 | 2.6 | 6.1 | 0.00 | 0.00 | 0.00 | 55 | 1016.4 |
| 20260504235603 | 68 | 194 | 3.5 | 6.1 | 0.00 | 0.00 | 0.00 | 55 | 1016.5 |
| 20260504235506 | 68 | 163 | 3.5 | 6.1 | 0.00 | 0.00 | 0.00 | 55 | 1016.4 |
| 20260504235404 | 68 | 166 | 4.3 | 6.1 | 0.00 | 0.00 | 0.00 | 55 | 1016.4 |
| 20260504235305 | 68 | 178 | 3.5 | 6.1 | 0.00 | 0.00 | 0.00 | 55 | 1016.5 |
| 20260504235204 | 69 | 152 | 2.6 | 6.1 | 0.00 | 0.00 | 0.00 | 55 | 1016.5 |
| 20260504235103 | 69 | 186 | 2.6 | 6.1 | 0.00 | 0.00 | 0.00 | 55 | 1016.4 |
| 20260504235005 | 69 | 202 | 2.6 | 6.1 | 0.00 | 0.00 | 0.00 | 55 | 1016.4 |
| 20260504234905 | 69 | 140 | 2.6 | 6.1 | 0.00 | 0.00 | 0.00 | 55 | 1016.5 |
| 20260504234805 | 69 | 173 | 2.6 | 6.1 | 0.00 | 0.00 | 0.00 | 54 | 1016.3 |
| 20260504234703 | 69 | 175 | 2.6 | 6.1 | 0.00 | 0.00 | 0.00 | 54 | 1016.4 |
| 20260504234604 | 69 | 191 | 3.5 | 6.1 | 0.00 | 0.00 | 0.00 | 54 | 1016.3 |
| 20260504234506 | 69 | 165 | 3.5 | 9.6 | 0.00 | 0.00 | 0.00 | 54 | 1016.4 |
| 20260504234204 | 69 | 202 | 2.6 | 9.6 | 0.00 | 0.00 | 0.00 | 54 | 1016.4 |
| 20260504234103 | 69 | 190 | 2.6 | 9.6 | 0.00 | 0.00 | 0.00 | 54 | 1016.4 |
| 20260504234005 | 69 | 169 | 2.6 | 9.6 | 0.00 | 0.00 | 0.00 | 54 | 1016.4 |
| 20260504233904 | 69 | 157 | 3.5 | 9.6 | 0.00 | 0.00 | 0.00 | 54 | 1016.4 |
| 20260504233804 | 69 | 155 | 4.3 | 9.6 | 0.00 | 0.00 | 0.00 | 54 | 1016.4 |
| 20260504233704 | 69 | 198 | 4.3 | 9.6 | 0.00 | 0.00 | 0.00 | 54 | 1016.4 |
| 20260504233604 | 69 | 184 | 3.5 | 7.8 | 0.00 | 0.00 | 0.00 | 54 | 1016.4 |
| 20260504233505 | 69 | 198 | 3.5 | 7.8 | 0.00 | 0.00 | 0.00 | 54 | 1016.4 |
| 20260504233405 | 69 | 217 | 2.6 | 7.8 | 0.00 | 0.00 | 0.00 | 54 | 1016.4 |
| 20260504233303 | 69 | 175 | 4.3 | 7.8 | 0.00 | 0.00 | 0.00 | 54 | 1016.3 |
| 20260504233204 | 69 | 153 | 3.5 | 7.8 | 0.00 | 0.00 | 0.00 | 54 | 1016.3 |
| 20260504232904 | 70 | 171 | 2.6 | 8.7 | 0.00 | 0.00 | 0.00 | 54 | 1016.3 |
| 20260504232804 | 70 | 186 | 2.6 | 8.7 | 0.00 | 0.00 | 0.00 | 54 | 1016.4 |
| 20260504232704 | 70 | 195 | 1.7 | 9.6 | 0.00 | 0.00 | 0.00 | 54 | 1016.4 |
| 20260504232604 | 70 | 234 | 1.7 | 9.6 | 0.00 | 0.00 | 0.00 | 54 | 1016.4 |
| 20260504232506 | 70 | 153 | 4.3 | 9.6 | 0.00 | 0.00 | 0.00 | 53 | 1016.4 |
| 20260504232404 | 70 | 137 | 4.3 | 9.6 | 0.00 | 0.00 | 0.00 | 53 | 1016.4 |
| 20260504232305 | 70 | 236 | 4.3 | 9.6 | 0.00 | 0.00 | 0.00 | 53 | 1016.3 |
| 20260504232203 | 70 | 121 | 5.2 | 9.6 | 0.00 | 0.00 | 0.00 | 54 | 1016.4 |
| 20260504231906 | 70 | 128 | 3.5 | 9.6 | 0.00 | 0.00 | 0.00 | 55 | 1016.4 |
| 20260504231804 | 70 | 180 | 2.6 | 8.7 | 0.00 | 0.00 | 0.00 | 55 | 1016.5 |
| 20260504231604 | 70 | 175 | 4.3 | 9.6 | 0.00 | 0.00 | 0.00 | 54 | 1016.4 |
| 20260504231505 | 70 | 182 | 2.6 | 9.6 | 0.00 | 0.00 | 0.00 | 55 | 1016.3 |
| 20260504231403 | 70 | 178 | 2.6 | 8.7 | 0.00 | 0.00 | 0.00 | 55 | 1016.4 |
| 20260504231204 | 70 | 157 | 5.2 | 8.7 | 0.00 | 0.00 | 0.00 | 55 | 1016.4 |
| 20260504231104 | 70 | 188 | 4.3 | 7.8 | 0.00 | 0.00 | 0.00 | 55 | 1016.4 |
| 20260504231006 | 70 | 199 | 4.3 | 13.0 | 0.00 | 0.00 | 0.00 | 55 | 1016.4 |